DLH458 VHHH-EDDF

Flight info

Callsign DLH458
Flight time 13h 5m
Altitude 32100
Route BEKOL A461 SHL W22 TEPID W24 OSNOV G586 QP B330 ELKAL W179 IGNAK/K0909S1010 W179 WFX/K0911S0980 W179 OMBON W195 VIDEK/K0906S1010 W195 LAXAL/K0898S1040 W195 IDOPA W197 ANDIM B215 IBANO G470 AKLAS W192 FKG A368 SARIN/K0874F340 N161 BURID/K0869F360 N161 GASBI/N0477F360 N161 LEYLA T916 MATAL DCT TABAS/N0478F380 DCT REBLO UM11 CRM UL746 ODERO DCT OPT DCT IRLOX DCT BALUX DCT TEKNO DCT ABETI DCT SUBEN DCT AKINI T161 DEBHI DEBHI1B
Aircraft A346/H-SDE2E3FGHIJ3J4J5M1RWXY/LB1D1

Departure

Time 2026-05-05 04:45
Airport Hong Kong International Airport (VHHH)

Arrival

Time 2026-05-05 17:50
Airport Frankfurt Main Airport (EDDF)
Time Latitude Longitude Altitude Speed Heading
2026-05-05 03:53 22.31512 113.92484 44 ft 0 kts 206°
2026-05-05 04:28 22.31524 113.92490 44 ft 2 kts 206°
2026-05-05 04:29 22.31538 113.92497 44 ft 2 kts 206°
2026-05-05 04:29 22.31551 113.92504 44 ft 2 kts 206°
2026-05-05 04:29 22.31564 113.92513 44 ft 2 kts 225°
2026-05-05 04:29 22.31573 113.92525 44 ft 2 kts 244°
2026-05-05 04:30 22.31578 113.92541 44 ft 2 kts 260°
2026-05-05 04:30 22.31579 113.92557 44 ft 2 kts 276°
2026-05-05 04:30 22.31576 113.92572 44 ft 1 kts 293°
2026-05-05 04:30 22.31573 113.92578 44 ft 0 kts 297°
2026-05-05 04:31 22.31573 113.92579 44 ft 0 kts 297°
2026-05-05 04:31 22.31573 113.92578 44 ft 0 kts 297°
2026-05-05 04:35 22.31577 113.92570 44 ft 2 kts 295°
2026-05-05 04:35 22.31590 113.92540 44 ft 5 kts 295°
2026-05-05 04:35 22.31606 113.92502 44 ft 7 kts 295°
2026-05-05 04:35 22.31638 113.92455 44 ft 8 kts 328°
2026-05-05 04:36 22.31701 113.92429 44 ft 10 kts 341°
2026-05-05 04:36 22.31736 113.92387 44 ft 7 kts 277°
2026-05-05 04:36 22.31721 113.92318 44 ft 10 kts 252°
2026-05-05 04:36 22.31695 113.92238 44 ft 12 kts 250°
2026-05-05 04:37 22.31664 113.92145 44 ft 13 kts 250°
2026-05-05 04:37 22.31631 113.92041 44 ft 15 kts 251°
2026-05-05 04:37 22.31597 113.91931 44 ft 15 kts 251°
2026-05-05 04:37 22.31560 113.91817 44 ft 16 kts 250°
2026-05-05 04:38 22.31521 113.91700 44 ft 16 kts 251°
2026-05-05 04:38 22.31482 113.91580 44 ft 17 kts 251°
2026-05-05 04:38 22.31443 113.91458 44 ft 17 kts 250°
2026-05-05 04:38 22.31403 113.91335 44 ft 17 kts 250°
2026-05-05 04:39 22.31362 113.91210 44 ft 17 kts 251°
2026-05-05 04:39 22.31321 113.91084 44 ft 17 kts 251°
2026-05-05 04:39 22.31280 113.90957 44 ft 18 kts 251°
2026-05-05 04:39 22.31239 113.90829 44 ft 18 kts 251°
2026-05-05 04:40 22.31197 113.90700 44 ft 18 kts 251°
2026-05-05 04:40 22.31156 113.90571 44 ft 18 kts 251°
2026-05-05 04:40 22.31115 113.90441 44 ft 18 kts 251°
2026-05-05 04:40 22.31073 113.90310 44 ft 18 kts 251°
2026-05-05 04:41 22.31031 113.90179 44 ft 18 kts 250°
2026-05-05 04:41 22.30992 113.90060 44 ft 10 kts 251°
2026-05-05 04:41 22.30966 113.89980 44 ft 12 kts 251°
2026-05-05 04:41 22.30937 113.89890 44 ft 13 kts 251°
2026-05-05 04:42 22.30906 113.89791 44 ft 14 kts 251°
2026-05-05 04:42 22.30893 113.89727 44 ft 5 kts 290°
2026-05-05 04:42 22.30928 113.89695 44 ft 8 kts 336°
2026-05-05 04:42 22.30987 113.89668 44 ft 10 kts 340°
2026-05-05 04:43 22.31046 113.89678 44 ft 9 kts 45°
2026-05-05 04:43 22.31072 113.89737 44 ft 2 kts 70°
2026-05-05 04:43 22.31072 113.89738 44 ft 0 kts 70°
2026-05-05 04:44 22.31080 113.89761 44 ft 19 kts 70°
2026-05-05 04:44 22.31199 113.90132 44 ft 83 kts 71°
2026-05-05 04:44 22.31454 113.90920 44 ft 137 kts 70°
2026-05-05 04:45 22.31820 113.92054 45 ft 181 kts 71°
2026-05-05 04:45 22.32237 113.93356 587 ft 175 kts 71°
2026-05-05 04:45 22.32605 113.94538 1214 ft 164 kts 71°
2026-05-05 04:45 22.33006 113.95686 1628 ft 164 kts 68°
2026-05-05 04:46 22.33540 113.96783 1944 ft 169 kts 59°
2026-05-05 04:46 22.34180 113.97893 2166 ft 179 kts 59°
2026-05-05 04:46 22.34862 113.99074 2401 ft 191 kts 58°
2026-05-05 04:46 22.35602 114.00309 2605 ft 199 kts 57°
2026-05-05 04:47 22.36387 114.01585 2787 ft 208 kts 57°
2026-05-05 04:47 22.37205 114.02895 3103 ft 211 kts 57°
2026-05-05 04:47 22.38026 114.04210 3486 ft 212 kts 57°
2026-05-05 04:47 22.38861 114.05543 3881 ft 213 kts 57°
2026-05-05 04:48 22.39692 114.06867 4257 ft 214 kts 58°
2026-05-05 04:48 22.40199 114.08354 4557 ft 215 kts 88°
2026-05-05 04:48 22.39869 114.09934 4751 ft 223 kts 113°
2026-05-05 04:48 22.39209 114.11504 4896 ft 236 kts 112°
2026-05-05 04:49 22.38521 114.13169 5102 ft 249 kts 113°
2026-05-05 04:49 22.37801 114.14930 5343 ft 263 kts 113°
2026-05-05 04:49 22.37048 114.16784 5591 ft 277 kts 113°
2026-05-05 04:49 22.36262 114.18725 5932 ft 286 kts 113°
2026-05-05 04:50 22.35461 114.20707 6434 ft 289 kts 113°
2026-05-05 04:50 22.34654 114.22703 6936 ft 292 kts 114°
2026-05-05 04:50 22.33841 114.24720 7400 ft 295 kts 113°
2026-05-05 04:50 22.33365 114.26876 7782 ft 301 kts 86°
2026-05-05 04:51 22.33956 114.29029 8174 ft 305 kts 56°
2026-05-05 04:51 22.35257 114.30844 8673 ft 307 kts 51°
2026-05-05 04:51 22.36605 114.32638 9248 ft 309 kts 52°
2026-05-05 04:51 22.38068 114.34326 9859 ft 309 kts 32°
2026-05-05 04:52 22.40061 114.35153 10435 ft 310 kts
2026-05-05 04:52 22.42239 114.34970 10614 ft 320 kts 347°
2026-05-05 04:52 22.44465 114.34468 10759 ft 332 kts 347°
2026-05-05 04:52 22.46784 114.33977 10894 ft 344 kts 346°
2026-05-05 04:53 22.49041 114.33056 10974 ft 350 kts 323°
2026-05-05 04:53 22.50813 114.31253 11153 ft 353 kts 302°
2026-05-05 04:53 22.51872 114.28858 11332 ft 357 kts 282°
2026-05-05 04:53 22.52286 114.26190 11543 ft 364 kts 277°
2026-05-05 04:54 22.52695 114.23470 11916 ft 369 kts 278°
2026-05-05 04:54 22.53131 114.20745 12480 ft 368 kts 278°
2026-05-05 04:54 22.53575 114.18017 13007 ft 368 kts 278°
2026-05-05 04:54 22.54289 114.15348 13418 ft 374 kts 295°
2026-05-05 04:55 22.55838 114.13063 13850 ft 381 kts 313°
2026-05-05 04:55 22.58025 114.11395 14232 ft 390 kts 330°
2026-05-05 04:55 22.60510 114.10160 14648 ft 393 kts 331°
2026-05-05 04:55 22.63000 114.08898 15075 ft 396 kts 330°
2026-05-05 04:56 22.65497 114.07618 15494 ft 397 kts 330°
2026-05-05 04:56 22.68003 114.06330 15897 ft 399 kts 330°
2026-05-05 04:56 22.70521 114.05035 16318 ft 401 kts 330°
2026-05-05 04:56 22.73056 114.03730 16712 ft 403 kts 330°
2026-05-05 04:57 22.75604 114.02418 17103 ft 405 kts 329°
2026-05-05 04:57 22.78160 114.01102 17454 ft 408 kts 329°
2026-05-05 04:57 22.80738 113.99772 17798 ft 410 kts 329°
2026-05-05 04:57 22.83326 113.98438 18192 ft 412 kts 329°
2026-05-05 04:58 22.85925 113.97097 18564 ft 413 kts 329°
2026-05-05 04:58 22.88527 113.95757 18940 ft 414 kts 329°
2026-05-05 04:58 22.91131 113.94411 19302 ft 415 kts 329°
2026-05-05 04:58 22.93750 113.93050 19672 ft 416 kts 329°
2026-05-05 04:59 22.96373 113.91684 20024 ft 418 kts 329°
2026-05-05 04:59 22.98999 113.90315 20369 ft 419 kts 329°
2026-05-05 04:59 23.01630 113.88943 20709 ft 420 kts 329°
2026-05-05 04:59 23.04274 113.87565 21036 ft 421 kts 329°
2026-05-05 05:00 23.06880 113.86107 21354 ft 420 kts 324°
2026-05-05 05:00 23.09323 113.84394 21680 ft 417 kts 319°
2026-05-05 05:00 23.11590 113.82440 21993 ft 414 kts 314°
2026-05-05 05:00 23.13703 113.80307 22293 ft 414 kts 311°
2026-05-05 05:01 23.15786 113.78136 22617 ft 415 kts 311°
2026-05-05 05:01 23.17865 113.75957 22930 ft 416 kts 311°
2026-05-05 05:01 23.19952 113.73768 23217 ft 418 kts 311°
2026-05-05 05:01 23.22049 113.71569 23501 ft 420 kts 311°
2026-05-05 05:02 23.24155 113.69361 23780 ft 421 kts 311°
2026-05-05 05:02 23.26265 113.67149 24074 ft 423 kts 311°
2026-05-05 05:02 23.28385 113.64928 24368 ft 424 kts 311°
2026-05-05 05:02 23.30517 113.62693 24660 ft 425 kts 311°
2026-05-05 05:03 23.32651 113.60454 24926 ft 427 kts 311°
2026-05-05 05:03 23.34794 113.58205 25215 ft 428 kts 311°
2026-05-05 05:03 23.36938 113.55953 25517 ft 429 kts 311°
2026-05-05 05:03 23.39084 113.53698 25784 ft 430 kts 311°
2026-05-05 05:04 23.41240 113.51433 26022 ft 432 kts 311°
2026-05-05 05:04 23.43404 113.49157 26272 ft 433 kts 311°
2026-05-05 05:04 23.45573 113.46874 26545 ft 434 kts 311°
2026-05-05 05:04 23.47745 113.44585 26818 ft 435 kts 311°
2026-05-05 05:05 23.49920 113.42293 27071 ft 436 kts 311°
2026-05-05 05:05 23.52103 113.39994 27318 ft 437 kts 311°
2026-05-05 05:05 23.54288 113.37685 27548 ft 438 kts 311°
2026-05-05 05:05 23.56466 113.35350 27779 ft 439 kts 310°
2026-05-05 05:06 23.58645 113.33006 28059 ft 440 kts 310°
2026-05-05 05:06 23.60814 113.30669 28420 ft 438 kts 310°
2026-05-05 05:06 23.62958 113.28318 28798 ft 435 kts 308°
2026-05-05 05:06 23.64914 113.25830 29158 ft 430 kts 303°
2026-05-05 05:07 23.66662 113.23204 29506 ft 427 kts 300°
2026-05-05 05:07 23.68199 113.20456 29833 ft 423 kts 295°
2026-05-05 05:07 23.69525 113.17607 30149 ft 421 kts 292°
2026-05-05 05:07 23.70746 113.14713 30444 ft 420 kts 292°
2026-05-05 05:08 23.71953 113.11815 30689 ft 420 kts 291°
2026-05-05 05:08 23.73161 113.08912 30912 ft 421 kts 293°
2026-05-05 05:08 23.74581 113.06105 31109 ft 425 kts 299°
2026-05-05 05:08 23.76323 113.03482 31315 ft 429 kts 305°
2026-05-05 05:09 23.78354 113.01072 31524 ft 434 kts 311°
2026-05-05 05:09 23.80655 112.98918 31745 ft 439 kts 317°
2026-05-05 05:09 23.83206 112.97055 31962 ft 444 kts 323°
2026-05-05 05:09 23.85984 112.95518 32101 ft 451 kts 330°
2026-05-05 05:10 23.88957 112.94334 32106 ft 457 kts 335°
2026-05-05 05:10 23.95045 112.92283 32116 ft 457 kts 335°
2026-05-05 05:11 24.01146 112.90257 32115 ft 457 kts 335°
2026-05-05 05:11 24.07241 112.88227 32114 ft 458 kts 335°
2026-05-05 05:12 24.13333 112.86195 32114 ft 455 kts 335°
2026-05-05 05:12 24.19440 112.84162 32115 ft 456 kts 335°
2026-05-05 05:13 24.25519 112.82143 32115 ft 455 kts 335°
2026-05-05 05:13 24.31591 112.80121 32117 ft 455 kts 335°
2026-05-05 05:14 24.37649 112.78100 32118 ft 454 kts 334°
2026-05-05 05:14 24.40540 112.76777 32114 ft 443 kts 324°
2026-05-05 05:14 24.43094 112.74958 32118 ft 434 kts 315°
2026-05-05 05:15 24.47138 112.70201 32122 ft 423 kts 300°
2026-05-05 05:15 24.49593 112.64419 32120 ft 417 kts 284°
2026-05-05 05:16 24.50511 112.58156 32127 ft 417 kts 277°
2026-05-05 05:16 24.51163 112.51848 32127 ft 417 kts 277°
2026-05-05 05:17 24.51793 112.45530 32129 ft 418 kts 277°
2026-05-05 05:17 24.52413 112.39208 32128 ft 417 kts 277°
2026-05-05 05:18 24.53023 112.32881 32129 ft 417 kts 276°
2026-05-05 05:18 24.53629 112.26555 32125 ft 418 kts 276°
2026-05-05 05:19 24.54233 112.20226 32130 ft 417 kts 276°
2026-05-05 05:19 24.54834 112.13897 32139 ft 417 kts 276°
2026-05-05 05:20 24.55431 112.07567 32145 ft 418 kts 276°
2026-05-05 05:20 24.56025 112.01237 32155 ft 417 kts 276°
2026-05-05 05:21 24.56615 111.94910 32161 ft 418 kts 276°
2026-05-05 05:21 24.57206 111.88576 32154 ft 418 kts 276°
2026-05-05 05:22 24.57796 111.82231 32148 ft 418 kts 276°
2026-05-05 05:22 24.58379 111.75890 32144 ft 418 kts 276°
2026-05-05 05:23 24.58962 111.69555 32137 ft 418 kts 276°
2026-05-05 05:23 24.59540 111.63221 32126 ft 418 kts 276°
2026-05-05 05:24 24.60117 111.56880 32112 ft 419 kts 276°
2026-05-05 05:24 24.60694 111.50527 32101 ft 419 kts 277°
2026-05-05 05:25 24.61265 111.44173 32097 ft 419 kts 277°
2026-05-05 05:25 24.61836 111.37816 32097 ft 419 kts 276°
2026-05-05 05:26 24.62405 111.31444 32099 ft 419 kts 276°
2026-05-05 05:26 24.62963 111.25081 32101 ft 419 kts 276°
2026-05-05 05:27 24.63512 111.18712 32102 ft 420 kts 276°
2026-05-05 05:27 24.64332 111.09160 32113 ft 419 kts 276°
2026-05-05 05:28 24.64878 111.02790 32121 ft 419 kts 276°
2026-05-05 05:28 24.65418 110.96421 32118 ft 420 kts 276°
2026-05-05 05:29 24.65960 110.90043 32110 ft 419 kts 277°
2026-05-05 05:29 24.67140 110.83783 32103 ft 420 kts 287°
2026-05-05 05:30 24.69357 110.77851 32095 ft 422 kts 296°
2026-05-05 05:30 24.72544 110.72423 32087 ft 426 kts 305°
2026-05-05 05:31 24.76601 110.67637 32084 ft 430 kts 311°
2026-05-05 05:31 24.80892 110.63069 32083 ft 429 kts 311°
2026-05-05 05:32 24.85196 110.58524 32088 ft 429 kts 312°
2026-05-05 05:32 24.89507 110.53975 32090 ft 429 kts 312°
2026-05-05 05:33 24.93815 110.49425 32091 ft 429 kts 311°
2026-05-05 05:33 24.98120 110.44875 32094 ft 429 kts 311°
2026-05-05 05:34 25.02423 110.40326 32091 ft 429 kts 312°
2026-05-05 05:34 25.06732 110.35780 32082 ft 429 kts 312°
2026-05-05 05:35 25.11037 110.31230 32081 ft 428 kts 311°
2026-05-05 05:35 25.15346 110.26671 32074 ft 430 kts 311°
2026-05-05 05:36 25.19650 110.22112 32074 ft 429 kts 311°
2026-05-05 05:36 25.23978 110.17567 32073 ft 430 kts 312°
2026-05-05 05:37 25.28310 110.13042 32073 ft 429 kts 312°
2026-05-05 05:37 25.32637 110.08509 32075 ft 428 kts 312°
2026-05-05 05:38 25.36955 110.03981 32082 ft 428 kts 312°
2026-05-05 05:38 25.41270 109.99449 32099 ft 428 kts 312°
2026-05-05 05:39 25.45585 109.94911 32111 ft 428 kts 312°
2026-05-05 05:39 25.49902 109.90365 32112 ft 428 kts 312°
2026-05-05 05:40 25.54216 109.85821 32118 ft 428 kts 312°
2026-05-05 05:40 25.58523 109.81274 32124 ft 428 kts 312°
2026-05-05 05:41 25.62823 109.76728 32113 ft 427 kts 312°
2026-05-05 05:41 25.67115 109.72191 32106 ft 427 kts 312°
2026-05-05 05:42 25.71341 109.67562 32094 ft 426 kts 309°
2026-05-05 05:42 25.74996 109.62440 32085 ft 423 kts 302°
2026-05-05 05:43 25.77975 109.56845 32077 ft 421 kts 295°
2026-05-05 05:43 25.80242 109.50865 32070 ft 422 kts 289°
2026-05-05 05:44 25.81954 109.44651 32070 ft 422 kts 287°
2026-05-05 05:44 25.83610 109.38415 32075 ft 423 kts 287°
2026-05-05 05:45 25.85257 109.32157 32077 ft 423 kts 287°
2026-05-05 05:45 25.86903 109.25896 32085 ft 424 kts 287°
2026-05-05 05:46 25.88543 109.19629 32089 ft 424 kts 287°
2026-05-05 05:46 25.90184 109.13350 32083 ft 424 kts 286°
2026-05-05 05:47 25.91821 109.07069 32090 ft 425 kts 287°
2026-05-05 05:47 25.93475 109.00776 32091 ft 425 kts 287°
2026-05-05 05:48 25.95150 108.94505 32081 ft 424 kts 287°
2026-05-05 05:48 25.96818 108.88224 32097 ft 425 kts 287°
2026-05-05 05:49 25.98488 108.81925 32099 ft 426 kts 287°
2026-05-05 05:49 26.00153 108.75627 32099 ft 425 kts 287°
2026-05-05 05:50 26.01820 108.69330 32108 ft 426 kts 287°
2026-05-05 05:50 26.03495 108.63039 32101 ft 425 kts 287°
2026-05-05 05:51 26.05169 108.56739 32097 ft 426 kts 287°
2026-05-05 05:51 26.06839 108.50437 32095 ft 426 kts 287°
2026-05-05 05:52 26.08521 108.44130 32096 ft 427 kts 288°
2026-05-05 05:52 26.10566 108.37949 32116 ft 427 kts 293°
2026-05-05 05:53 26.13053 108.31955 32115 ft 427 kts 295°
2026-05-05 05:53 26.15616 108.26013 32129 ft 427 kts 295°
2026-05-05 05:54 26.18183 108.20073 32136 ft 427 kts 295°
2026-05-05 05:54 26.20751 108.14123 32147 ft 428 kts 295°
2026-05-05 05:55 26.23320 108.08164 32133 ft 428 kts 295°
2026-05-05 05:55 26.25893 108.02187 32128 ft 429 kts 295°
2026-05-05 05:56 26.28464 107.96204 32120 ft 430 kts 296°
2026-05-05 05:56 26.31039 107.90203 32115 ft 430 kts 295°
2026-05-05 05:57 26.33615 107.84196 32115 ft 430 kts 296°
2026-05-05 05:57 26.36186 107.78194 32114 ft 430 kts 296°
2026-05-05 05:58 26.38757 107.72177 32114 ft 431 kts 295°
2026-05-05 05:58 26.41330 107.66145 32120 ft 431 kts 295°
2026-05-05 05:59 26.43898 107.60115 32133 ft 431 kts 295°
2026-05-05 05:59 26.46470 107.54071 32138 ft 432 kts 295°
2026-05-05 06:00 26.49040 107.48020 32154 ft 432 kts 295°
2026-05-05 06:00 26.51608 107.41957 32164 ft 433 kts 295°
2026-05-05 06:01 26.54175 107.35882 32170 ft 433 kts 296°
2026-05-05 06:01 26.56748 107.29807 32168 ft 433 kts 295°
2026-05-05 06:02 26.59320 107.23731 32170 ft 432 kts 295°
2026-05-05 06:02 26.61883 107.17661 32162 ft 433 kts 295°
2026-05-05 06:03 26.64453 107.11586 32167 ft 433 kts 296°
2026-05-05 06:03 26.67037 107.05513 32162 ft 433 kts 296°
2026-05-05 06:04 26.69618 106.99435 32153 ft 433 kts 295°
2026-05-05 06:04 26.72193 106.93357 32170 ft 433 kts 295°
2026-05-05 06:05 26.74814 106.87297 32165 ft 434 kts 298°
2026-05-05 06:05 26.77916 106.81520 32178 ft 434 kts 303°
2026-05-05 06:06 26.81567 106.76136 32173 ft 436 kts 309°
2026-05-05 06:06 26.85739 106.71206 32191 ft 437 kts 315°
2026-05-05 06:07 26.90282 106.66670 32186 ft 438 kts 316°
2026-05-05 06:07 26.94866 106.62168 32178 ft 438 kts 317°
2026-05-05 06:08 26.99452 106.57670 32174 ft 438 kts 317°
2026-05-05 06:08 27.04034 106.53172 32172 ft 438 kts 317°
2026-05-05 06:09 27.08617 106.48665 32162 ft 438 kts 317°
2026-05-05 06:09 27.13206 106.44152 32153 ft 438 kts 317°
2026-05-05 06:10 27.17797 106.39627 32155 ft 439 kts 317°
2026-05-05 06:10 27.22401 106.35113 32166 ft 439 kts 318°
2026-05-05 06:11 27.27019 106.30627 32168 ft 440 kts 317°
2026-05-05 06:11 27.31639 106.26133 32156 ft 439 kts 317°
2026-05-05 06:12 27.36260 106.21632 32154 ft 440 kts 317°
2026-05-05 06:12 27.40887 106.17117 32140 ft 440 kts 317°
2026-05-05 06:13 27.45507 106.12599 32135 ft 440 kts 317°
2026-05-05 06:13 27.50126 106.08079 32113 ft 441 kts 318°
2026-05-05 06:14 27.54754 106.03544 32108 ft 441 kts 317°
2026-05-05 06:14 27.59382 105.99007 32095 ft 441 kts 318°
2026-05-05 06:15 27.64009 105.94461 32072 ft 442 kts 318°
2026-05-05 06:15 27.68373 105.89600 32070 ft 442 kts 310°
2026-05-05 06:16 27.72042 105.84051 32064 ft 442 kts 303°
2026-05-05 06:16 27.74943 105.77941 32056 ft 443 kts 295°
2026-05-05 06:17 27.77053 105.71407 32059 ft 445 kts 290°
2026-05-05 06:17 27.78929 105.64775 32070 ft 444 kts 290°
2026-05-05 06:18 27.81096 105.58282 32059 ft 442 kts 295°
2026-05-05 06:18 27.83541 105.51932 32068 ft 441 kts 295°
2026-05-05 06:19 27.85993 105.45586 32073 ft 442 kts 295°
2026-05-05 06:19 27.88466 105.39249 32068 ft 442 kts 296°
2026-05-05 06:20 27.91190 105.33043 32074 ft 441 kts 297°
2026-05-05 06:20 27.93988 105.26880 32070 ft 441 kts 300°
2026-05-05 06:21 27.97395 105.21136 32071 ft 440 kts 308°
2026-05-05 06:21 28.01515 105.16025 32064 ft 441 kts 315°
2026-05-05 06:22 28.06280 105.11644 32054 ft 443 kts 323°
2026-05-05 06:22 28.11504 105.07881 32035 ft 445 kts 326°
2026-05-05 06:23 28.16768 105.04195 32043 ft 445 kts 326°
2026-05-05 06:23 28.22027 105.00518 32052 ft 445 kts 326°
2026-05-05 06:24 28.27291 104.96834 32063 ft 444 kts 326°
2026-05-05 06:24 28.32550 104.93146 32047 ft 445 kts 326°
2026-05-05 06:25 28.37810 104.89453 32018 ft 445 kts 326°
2026-05-05 06:25 28.43081 104.85767 31992 ft 445 kts 327°
2026-05-05 06:26 28.48362 104.82081 31966 ft 445 kts 326°
2026-05-05 06:26 28.53636 104.78391 31952 ft 445 kts 327°
2026-05-05 06:27 28.61548 104.72847 31939 ft 445 kts 326°
2026-05-05 06:28 28.66817 104.69147 31941 ft 445 kts 327°
2026-05-05 06:28 28.72090 104.65441 31945 ft 445 kts 327°
2026-05-05 06:29 28.77362 104.61728 31936 ft 446 kts 327°
2026-05-05 06:29 28.82634 104.58014 31931 ft 445 kts 327°
2026-05-05 06:30 28.87903 104.54288 31920 ft 445 kts 327°
2026-05-05 06:30 28.93153 104.50550 31912 ft 445 kts 327°
2026-05-05 06:31 28.98411 104.46802 31910 ft 446 kts 327°
2026-05-05 06:31 29.03674 104.43048 31912 ft 446 kts 327°
2026-05-05 06:32 29.08941 104.39284 31918 ft 447 kts 327°
2026-05-05 06:32 29.14219 104.35507 31928 ft 446 kts 327°
2026-05-05 06:33 29.19533 104.31833 31929 ft 447 kts 331°
2026-05-05 06:33 29.25337 104.29198 31933 ft 451 kts 341°
2026-05-05 06:34 29.31534 104.27898 31938 ft 456 kts 352°
2026-05-05 06:34 29.37909 104.28022 31948 ft 462 kts
2026-05-05 06:35 29.44275 104.29042 31959 ft 461 kts
2026-05-05 06:35 29.50632 104.30133 31960 ft 461 kts
2026-05-05 06:36 29.56988 104.31221 31960 ft 461 kts
2026-05-05 06:36 29.63349 104.32307 31950 ft 461 kts
2026-05-05 06:37 29.69705 104.33393 31957 ft 462 kts
2026-05-05 06:37 29.76054 104.34480 31949 ft 461 kts
2026-05-05 06:38 29.82409 104.35566 31935 ft 462 kts
2026-05-05 06:38 29.88768 104.36659 31925 ft 462 kts
2026-05-05 06:39 29.95132 104.37752 31928 ft 462 kts
2026-05-05 06:39 30.01482 104.38845 31916 ft 461 kts
2026-05-05 06:40 30.07823 104.39938 31920 ft 460 kts
2026-05-05 06:40 30.14156 104.41030 31925 ft 460 kts
2026-05-05 06:41 30.20501 104.42127 31931 ft 461 kts
2026-05-05 06:41 30.26850 104.43234 31935 ft 461 kts
2026-05-05 06:42 30.33193 104.44344 31936 ft 461 kts
2026-05-05 06:42 30.39533 104.45452 31940 ft 460 kts
2026-05-05 06:43 30.45870 104.46566 31940 ft 460 kts
2026-05-05 06:43 30.52197 104.47577 31938 ft 458 kts
2026-05-05 06:44 30.58549 104.47753 31942 ft 455 kts 354°
2026-05-05 06:44 30.64828 104.46958 31938 ft 453 kts 347°
2026-05-05 06:45 30.70924 104.45219 31943 ft 450 kts 340°
2026-05-05 06:45 30.76883 104.42966 31944 ft 451 kts 339°
2026-05-05 06:46 30.82910 104.40892 31948 ft 453 kts 343°
2026-05-05 06:46 30.89101 104.39492 31948 ft 453 kts 349°
2026-05-05 06:47 30.95402 104.38799 31946 ft 456 kts 354°
2026-05-05 06:47 31.01754 104.38594 31945 ft 457 kts 356°
2026-05-05 06:48 31.08117 104.38435 31949 ft 457 kts 355°
2026-05-05 06:48 31.14490 104.38270 31950 ft 457 kts 355°
2026-05-05 06:49 31.20845 104.38106 31952 ft 457 kts 355°
2026-05-05 06:49 31.27203 104.37906 31956 ft 457 kts 354°
2026-05-05 06:50 31.33548 104.37525 31958 ft 456 kts 354°
2026-05-05 06:50 31.39893 104.37139 31973 ft 456 kts 354°
2026-05-05 06:51 31.46236 104.36762 31982 ft 456 kts 354°
2026-05-05 06:51 31.52576 104.36388 31993 ft 456 kts 354°
2026-05-05 06:52 31.58916 104.36017 32020 ft 455 kts 354°
2026-05-05 06:52 31.65259 104.35645 32053 ft 456 kts 354°
2026-05-05 06:53 31.71603 104.35276 32084 ft 457 kts 354°
2026-05-05 06:53 31.77940 104.34906 32116 ft 455 kts 354°
2026-05-05 06:54 31.84283 104.34578 32129 ft 456 kts 354°
2026-05-05 06:54 31.90640 104.34253 32130 ft 456 kts 354°
2026-05-05 06:55 31.96985 104.33930 32140 ft 456 kts 354°
2026-05-05 06:55 32.03330 104.33606 32156 ft 457 kts 354°
2026-05-05 06:56 32.09695 104.33278 32176 ft 458 kts 354°
2026-05-05 06:56 32.16069 104.32950 32200 ft 457 kts 354°
2026-05-05 06:57 32.22415 104.32624 32234 ft 456 kts 354°
2026-05-05 06:57 32.28754 104.32298 32260 ft 455 kts 354°
2026-05-05 06:58 32.35092 104.31970 32257 ft 455 kts 354°
2026-05-05 06:58 32.41430 104.31642 32249 ft 456 kts 354°
2026-05-05 06:59 32.47778 104.31332 32236 ft 457 kts 354°
2026-05-05 06:59 32.54133 104.31030 32237 ft 457 kts 354°
2026-05-05 07:00 32.60500 104.30725 32298 ft 458 kts 354°
2026-05-05 07:00 32.66854 104.30416 32317 ft 456 kts 354°
2026-05-05 07:01 32.73199 104.30111 32353 ft 455 kts 354°
2026-05-05 07:01 32.79536 104.29807 32385 ft 456 kts 354°
2026-05-05 07:02 32.85882 104.29501 32385 ft 457 kts 354°
2026-05-05 07:02 32.92232 104.29191 32374 ft 458 kts 354°
2026-05-05 07:03 32.98607 104.28882 32359 ft 457 kts 354°
2026-05-05 07:03 33.04959 104.28573 32354 ft 457 kts 354°
2026-05-05 07:04 33.11330 104.28264 32325 ft 458 kts 354°
2026-05-05 07:04 33.17693 104.27956 32294 ft 458 kts 354°
2026-05-05 07:05 33.24057 104.27648 32261 ft 458 kts 354°
2026-05-05 07:05 33.30367 104.26875 32255 ft 454 kts 346°
2026-05-05 07:06 33.36478 104.25106 32268 ft 451 kts 339°
2026-05-05 07:06 33.42298 104.22392 32316 ft 449 kts 332°
2026-05-05 07:07 33.47772 104.18890 32339 ft 446 kts 328°
2026-05-05 07:07 33.53292 104.15474 32336 ft 448 kts 334°
2026-05-05 07:08 33.59190 104.12996 32334 ft 451 kts 341°
2026-05-05 07:08 33.65376 104.11556 32314 ft 455 kts 349°
2026-05-05 07:09 33.71742 104.11172 32325 ft 459 kts 355°
2026-05-05 07:09 33.78125 104.11148 32309 ft 459 kts 355°
2026-05-05 07:10 33.84514 104.11140 32294 ft 459 kts 355°
2026-05-05 07:10 33.90899 104.11138 32270 ft 459 kts 355°
2026-05-05 07:11 33.97289 104.11132 32255 ft 459 kts 355°
2026-05-05 07:11 34.03687 104.11134 32257 ft 460 kts 355°
2026-05-05 07:12 34.10084 104.11135 32256 ft 460 kts 355°
2026-05-05 07:12 34.16482 104.11132 32259 ft 459 kts 355°
2026-05-05 07:13 34.22868 104.11134 32266 ft 459 kts 355°
2026-05-05 07:13 34.29261 104.11134 32262 ft 459 kts 355°
2026-05-05 07:14 34.35659 104.11134 32259 ft 460 kts 355°
2026-05-05 07:14 34.42058 104.11136 32257 ft 459 kts 355°
2026-05-05 07:15 34.48451 104.11138 32263 ft 460 kts 355°
2026-05-05 07:15 34.54866 104.11135 32274 ft 461 kts 355°
2026-05-05 07:16 34.61270 104.11138 32284 ft 460 kts 355°
2026-05-05 07:16 34.67666 104.11141 32285 ft 459 kts 355°
2026-05-05 07:17 34.74059 104.11143 32289 ft 459 kts 354°
2026-05-05 07:17 34.80461 104.11146 32292 ft 460 kts 354°
2026-05-05 07:18 34.86860 104.11147 32284 ft 461 kts 355°
2026-05-05 07:18 34.93258 104.11151 32279 ft 460 kts 354°
2026-05-05 07:19 34.99663 104.11154 32274 ft 461 kts 354°
2026-05-05 07:19 35.06065 104.11156 32250 ft 460 kts 354°
2026-05-05 07:20 35.12475 104.11158 32233 ft 460 kts 354°
2026-05-05 07:20 35.18878 104.11161 32210 ft 461 kts 354°
2026-05-05 07:21 35.25281 104.11163 32200 ft 460 kts 354°
2026-05-05 07:21 35.31691 104.11168 32193 ft 461 kts 355°
2026-05-05 07:22 35.38105 104.11173 32180 ft 461 kts 355°
2026-05-05 07:22 35.44514 104.11182 32178 ft 461 kts 354°
2026-05-05 07:23 35.50918 104.11189 32170 ft 460 kts 355°
2026-05-05 07:23 35.57326 104.11209 32171 ft 461 kts 355°
2026-05-05 07:24 35.63733 104.11238 32171 ft 460 kts 354°
2026-05-05 07:24 35.70151 104.11266 32167 ft 461 kts 354°
2026-05-05 07:25 35.76558 104.11295 32182 ft 460 kts 355°
2026-05-05 07:25 35.82959 104.11233 32154 ft 459 kts 352°
2026-05-05 07:26 35.89323 104.10636 32124 ft 458 kts 349°
2026-05-05 07:26 35.95670 104.09932 32095 ft 458 kts 349°
2026-05-05 07:27 36.02001 104.09234 32055 ft 457 kts 349°
2026-05-05 07:27 36.08333 104.08539 32039 ft 458 kts 349°
2026-05-05 07:28 36.14703 104.07844 32034 ft 458 kts 349°
2026-05-05 07:28 36.21047 104.07149 32031 ft 458 kts 349°
2026-05-05 07:29 36.27385 104.06455 32027 ft 458 kts 349°
2026-05-05 07:29 36.33734 104.05763 32037 ft 458 kts 349°
2026-05-05 07:30 36.40088 104.05063 32039 ft 459 kts 349°
2026-05-05 07:30 36.49617 104.04009 32051 ft 459 kts 348°
2026-05-05 07:31 36.55725 104.02187 32056 ft 448 kts 333°
2026-05-05 07:31 36.61090 103.98420 32065 ft 441 kts 319°
2026-05-05 07:32 36.65397 103.93104 32068 ft 435 kts 305°
2026-05-05 07:32 36.68551 103.86712 32071 ft 435 kts 297°
2026-05-05 07:33 36.71437 103.80113 32096 ft 434 kts 297°
2026-05-05 07:33 36.74297 103.73522 32107 ft 434 kts 297°
2026-05-05 07:34 36.77160 103.66903 32134 ft 435 kts 297°
2026-05-05 07:34 36.80014 103.60284 32144 ft 434 kts 297°
2026-05-05 07:35 36.82864 103.53664 32165 ft 434 kts 297°
2026-05-05 07:35 36.85707 103.47047 32185 ft 433 kts 297°
2026-05-05 07:36 36.88543 103.40433 32210 ft 433 kts 297°
2026-05-05 07:36 36.91371 103.33816 32231 ft 433 kts 297°
2026-05-05 07:37 36.94284 103.27261 32229 ft 433 kts 300°
2026-05-05 07:37 36.97476 103.20882 32256 ft 434 kts 300°
2026-05-05 07:38 37.00684 103.14513 32265 ft 434 kts 300°
2026-05-05 07:38 37.03892 103.08141 32279 ft 433 kts 300°
2026-05-05 07:39 37.07092 103.01764 32295 ft 434 kts 300°
2026-05-05 07:39 37.10296 102.95372 32297 ft 434 kts 300°
2026-05-05 07:40 37.13502 102.88964 32294 ft 435 kts 300°
2026-05-05 07:40 37.16696 102.82563 32306 ft 435 kts 300°
2026-05-05 07:41 37.19888 102.76153 32333 ft 435 kts 300°
2026-05-05 07:41 37.23084 102.69732 32321 ft 434 kts 300°
2026-05-05 07:42 37.26270 102.63310 32330 ft 435 kts 300°
2026-05-05 07:42 37.29460 102.56870 32324 ft 436 kts 299°
2026-05-05 07:43 37.32523 102.50343 32317 ft 433 kts 296°
2026-05-05 07:43 37.35097 102.43518 32324 ft 433 kts 291°
2026-05-05 07:44 37.37143 102.36431 32337 ft 432 kts 286°
2026-05-05 07:44 37.38701 102.29150 32342 ft 432 kts 283°
2026-05-05 07:45 37.40151 102.21848 32350 ft 432 kts 283°
2026-05-05 07:45 37.41596 102.14512 32344 ft 433 kts 283°
2026-05-05 07:46 37.43030 102.07177 32344 ft 434 kts 283°
2026-05-05 07:46 37.44455 101.99840 32354 ft 434 kts 282°
2026-05-05 07:47 37.45875 101.92491 32364 ft 433 kts 282°
2026-05-05 07:47 37.47287 101.85144 32369 ft 433 kts 282°
2026-05-05 07:48 37.48705 101.77792 32369 ft 434 kts 283°
2026-05-05 07:48 37.50468 101.70534 32381 ft 436 kts 288°
2026-05-05 07:49 37.52761 101.63495 32384 ft 436 kts 293°
2026-05-05 07:49 37.55526 101.56700 32389 ft 438 kts 295°
2026-05-05 07:50 37.58394 101.49954 32392 ft 438 kts 296°
2026-05-05 07:50 37.61270 101.43200 32407 ft 439 kts 296°
2026-05-05 07:51 37.64143 101.36433 32414 ft 439 kts 296°
2026-05-05 07:51 37.67011 101.29671 32429 ft 438 kts 295°
2026-05-05 07:52 37.69870 101.22903 32445 ft 438 kts 295°
2026-05-05 07:52 37.72725 101.16148 32437 ft 438 kts 295°
2026-05-05 07:53 37.75582 101.09362 32444 ft 439 kts 295°
2026-05-05 07:53 37.78432 101.02577 32461 ft 438 kts 295°
2026-05-05 07:54 37.81283 100.95778 32452 ft 438 kts 295°
2026-05-05 07:54 37.84169 100.88996 32463 ft 439 kts 296°
2026-05-05 07:55 37.87181 100.82284 32478 ft 440 kts 296°
2026-05-05 07:55 37.90192 100.75560 32487 ft 440 kts 296°
2026-05-05 07:56 37.93195 100.68831 32492 ft 439 kts 296°
2026-05-05 07:56 37.96186 100.62099 32488 ft 440 kts 296°
2026-05-05 07:57 37.99178 100.55345 32491 ft 441 kts 296°
2026-05-05 07:57 38.02165 100.48589 32491 ft 441 kts 296°
2026-05-05 07:58 38.05146 100.41827 32484 ft 439 kts 296°
2026-05-05 07:58 38.08118 100.35082 32478 ft 440 kts 296°
2026-05-05 07:59 38.11101 100.28284 32472 ft 440 kts 295°
2026-05-05 07:59 38.14073 100.21510 32472 ft 440 kts 296°
2026-05-05 08:00 38.17042 100.14723 32479 ft 441 kts 296°
2026-05-05 08:00 38.20009 100.07932 32456 ft 440 kts 295°
2026-05-05 08:01 38.22968 100.01135 32441 ft 441 kts 295°
2026-05-05 08:01 38.25928 99.94321 32448 ft 440 kts 295°
2026-05-05 08:02 38.28881 99.87518 32445 ft 441 kts 295°
2026-05-05 08:02 38.31834 99.80700 32446 ft 441 kts 295°
2026-05-05 08:03 38.34777 99.73882 32444 ft 441 kts 295°
2026-05-05 08:03 38.37718 99.67058 32438 ft 441 kts 295°
2026-05-05 08:04 38.40656 99.60229 32447 ft 441 kts 295°
2026-05-05 08:04 38.43591 99.53391 32452 ft 441 kts 295°
2026-05-05 08:05 38.46521 99.46547 32459 ft 441 kts 295°
2026-05-05 08:05 38.49448 99.39701 32457 ft 440 kts 295°
2026-05-05 08:06 38.52375 99.32836 32453 ft 441 kts 294°
2026-05-05 08:06 38.55286 99.25986 32439 ft 439 kts 295°
2026-05-05 08:07 38.58191 99.19146 32443 ft 440 kts 295°
2026-05-05 08:07 38.61091 99.12295 32456 ft 439 kts 294°
2026-05-05 08:08 38.63980 99.05459 32483 ft 438 kts 294°
2026-05-05 08:08 38.66871 98.98607 32506 ft 439 kts 294°
2026-05-05 08:09 38.69753 98.91755 32498 ft 438 kts 295°
2026-05-05 08:09 38.72641 98.84880 32480 ft 441 kts 294°
2026-05-05 08:10 38.75525 98.77998 32462 ft 439 kts 295°
2026-05-05 08:10 38.78401 98.71123 32466 ft 439 kts 295°
2026-05-05 08:11 38.81274 98.64237 32464 ft 440 kts 295°
2026-05-05 08:11 38.84144 98.57345 32487 ft 439 kts 294°
2026-05-05 08:12 38.87007 98.50446 32501 ft 439 kts 295°
2026-05-05 08:12 38.89863 98.43549 32495 ft 439 kts 294°
2026-05-05 08:13 38.92716 98.36648 32474 ft 439 kts 294°
2026-05-05 08:13 38.95559 98.29754 32448 ft 437 kts 294°
2026-05-05 08:14 38.98397 98.22855 32426 ft 438 kts 294°
2026-05-05 08:14 39.01233 98.15949 32429 ft 438 kts 294°
2026-05-05 08:15 39.04062 98.09049 32433 ft 436 kts 294°
2026-05-05 08:15 39.06886 98.02142 32455 ft 438 kts 294°
2026-05-05 08:16 39.09706 97.95219 32477 ft 438 kts 294°
2026-05-05 08:16 39.12537 97.88279 32472 ft 438 kts 293°
2026-05-05 08:17 39.15364 97.81317 32441 ft 440 kts 293°
2026-05-05 08:17 39.18188 97.74338 32412 ft 441 kts 294°
2026-05-05 08:18 39.21018 97.67344 32391 ft 442 kts 293°
2026-05-05 08:18 39.23845 97.60333 32394 ft 441 kts 293°
2026-05-05 08:19 39.26675 97.53329 32398 ft 441 kts 293°
2026-05-05 08:19 39.29505 97.46308 32409 ft 442 kts 293°
2026-05-05 08:20 39.32326 97.39294 32404 ft 441 kts 293°
2026-05-05 08:20 39.35148 97.32264 32409 ft 443 kts 292°
2026-05-05 08:21 39.37971 97.25210 32418 ft 442 kts 293°
2026-05-05 08:21 39.40786 97.18153 32411 ft 443 kts 293°
2026-05-05 08:22 39.43598 97.11096 32415 ft 443 kts 293°
2026-05-05 08:22 39.46371 97.04134 32399 ft 442 kts 292°
2026-05-05 08:23 39.49188 96.97086 32407 ft 443 kts 293°
2026-05-05 08:23 39.52021 96.90029 32381 ft 443 kts 293°
2026-05-05 08:24 39.54850 96.82953 32372 ft 443 kts 292°
2026-05-05 08:24 39.57674 96.75877 32361 ft 444 kts 292°
2026-05-05 08:25 39.60497 96.68773 32362 ft 445 kts 293°
2026-05-05 08:25 39.63327 96.61646 32346 ft 446 kts 292°
2026-05-05 08:26 39.66137 96.54521 32347 ft 445 kts 292°
2026-05-05 08:26 39.68938 96.47383 32334 ft 445 kts 292°
2026-05-05 08:27 39.71744 96.40232 32326 ft 447 kts 292°
2026-05-05 08:27 39.74548 96.33050 32306 ft 447 kts 292°
2026-05-05 08:28 39.77359 96.25870 32297 ft 446 kts 292°
2026-05-05 08:28 39.80154 96.18694 32280 ft 447 kts 292°
2026-05-05 08:29 39.82958 96.11483 32265 ft 447 kts 292°
2026-05-05 08:30 39.87151 96.00671 32254 ft 448 kts 291°
2026-05-05 08:30 39.89946 95.93437 32223 ft 449 kts 291°
2026-05-05 08:31 39.92729 95.86193 32216 ft 449 kts 292°
2026-05-05 08:31 39.95514 95.78951 32210 ft 449 kts 292°
2026-05-05 08:32 39.98297 95.71702 32189 ft 449 kts 291°
2026-05-05 08:32 40.01075 95.64446 32178 ft 449 kts 292°
2026-05-05 08:33 40.03851 95.57168 32178 ft 450 kts 292°
2026-05-05 08:33 40.06633 95.49871 32154 ft 451 kts 292°
2026-05-05 08:34 40.09412 95.42549 32149 ft 451 kts 292°
2026-05-05 08:34 40.12186 95.35227 32131 ft 452 kts 292°
2026-05-05 08:35 40.14962 95.27882 32130 ft 452 kts 291°
2026-05-05 08:35 40.17730 95.20541 32111 ft 451 kts 291°
2026-05-05 08:36 40.20494 95.13196 32097 ft 451 kts 291°
2026-05-05 08:36 40.23287 95.05867 32081 ft 452 kts 291°
2026-05-05 08:37 40.26076 94.98540 32068 ft 450 kts 291°
2026-05-05 08:37 40.28918 94.91247 32057 ft 453 kts 294°
2026-05-05 08:38 40.32240 94.84225 32065 ft 456 kts 299°
2026-05-05 08:38 40.36064 94.77581 32063 ft 459 kts 303°
2026-05-05 08:39 40.40029 94.71032 32058 ft 459 kts 303°
2026-05-05 08:39 40.43992 94.64488 32066 ft 459 kts 303°
2026-05-05 08:40 40.47953 94.57923 32057 ft 458 kts 303°
2026-05-05 08:40 40.51900 94.51368 32057 ft 459 kts 303°
2026-05-05 08:41 40.55846 94.44795 32065 ft 459 kts 303°
2026-05-05 08:41 40.59789 94.38215 32074 ft 458 kts 303°
2026-05-05 08:42 40.63730 94.31625 32073 ft 459 kts 302°
2026-05-05 08:42 40.67659 94.25045 32085 ft 457 kts 302°
2026-05-05 08:43 40.71577 94.18460 32096 ft 457 kts 302°
2026-05-05 08:43 40.75488 94.11878 32092 ft 457 kts 302°
2026-05-05 08:44 40.79395 94.05289 32098 ft 457 kts 302°
2026-05-05 08:44 40.83293 93.98704 32097 ft 457 kts 302°
2026-05-05 08:45 40.87184 93.92118 32088 ft 456 kts 302°
2026-05-05 08:45 40.91078 93.85514 32090 ft 457 kts 303°
2026-05-05 08:46 40.95172 93.79083 32091 ft 459 kts 305°
2026-05-05 08:46 40.99316 93.72675 32091 ft 459 kts 305°
2026-05-05 08:47 41.03448 93.66270 32102 ft 458 kts 305°
2026-05-05 08:47 41.07565 93.59871 32096 ft 457 kts 305°
2026-05-05 08:48 41.11678 93.53469 32080 ft 457 kts 305°
2026-05-05 08:48 41.15781 93.47061 32091 ft 456 kts 305°
2026-05-05 08:49 41.19881 93.40647 32082 ft 456 kts 305°
2026-05-05 08:49 41.23971 93.34232 32073 ft 455 kts 304°
2026-05-05 08:50 41.28049 93.27823 32071 ft 456 kts 304°
2026-05-05 08:50 41.32129 93.21397 32078 ft 456 kts 304°
2026-05-05 08:51 41.36202 93.14967 32076 ft 455 kts 304°
2026-05-05 08:51 41.40264 93.08540 32083 ft 454 kts 304°
2026-05-05 08:52 41.44322 93.02109 32074 ft 455 kts 304°
2026-05-05 08:52 41.48375 92.95669 32084 ft 454 kts 304°
2026-05-05 08:53 41.52419 92.89236 32080 ft 453 kts 304°
2026-05-05 08:53 41.56459 92.82788 32074 ft 454 kts 304°
2026-05-05 08:54 41.60492 92.76339 32076 ft 453 kts 304°
2026-05-05 08:54 41.64523 92.69886 32082 ft 453 kts 304°
2026-05-05 08:55 41.68543 92.63437 32070 ft 453 kts 304°
2026-05-05 08:55 41.72558 92.56980 32061 ft 452 kts 304°
2026-05-05 08:56 41.76571 92.50511 32061 ft 454 kts 304°
2026-05-05 08:56 41.80583 92.44023 32072 ft 452 kts 303°
2026-05-05 08:57 41.84580 92.37545 32064 ft 452 kts 304°
2026-05-05 08:57 41.88580 92.31052 32062 ft 453 kts 303°
2026-05-05 08:58 41.92575 92.24558 32054 ft 453 kts 303°
2026-05-05 08:58 41.96581 92.18037 32053 ft 454 kts 303°
2026-05-05 08:59 42.00584 92.11497 32065 ft 454 kts 303°
2026-05-05 08:59 42.04578 92.04961 32072 ft 453 kts 303°
2026-05-05 09:00 42.08563 91.98416 32085 ft 453 kts 303°
2026-05-05 09:00 42.12551 91.91860 32091 ft 453 kts 303°
2026-05-05 09:01 42.16524 91.85321 32077 ft 452 kts 303°
2026-05-05 09:01 42.20493 91.78767 32092 ft 452 kts 303°
2026-05-05 09:02 42.24718 91.72470 32085 ft 456 kts 309°
2026-05-05 09:02 42.29287 91.66541 32084 ft 458 kts 310°
2026-05-05 09:03 42.33906 91.60642 32081 ft 458 kts 310°
2026-05-05 09:03 42.38525 91.54735 32077 ft 458 kts 311°
2026-05-05 09:04 42.43137 91.48826 32079 ft 457 kts 310°
2026-05-05 09:04 42.47740 91.42902 32065 ft 458 kts 311°
2026-05-05 09:05 42.52344 91.36968 32068 ft 458 kts 311°
2026-05-05 09:05 42.56946 91.31021 32060 ft 456 kts 310°
2026-05-05 09:06 42.61533 91.25081 32046 ft 456 kts 310°
2026-05-05 09:06 42.66115 91.19132 32037 ft 457 kts 310°
2026-05-05 09:07 42.70704 91.13162 32017 ft 457 kts 311°
2026-05-05 09:07 42.75283 91.07196 32006 ft 457 kts 311°
2026-05-05 09:08 42.79856 91.01223 32000 ft 457 kts 311°
2026-05-05 09:08 42.84415 90.95213 32005 ft 456 kts 309°
2026-05-05 09:09 42.88603 90.88803 32006 ft 452 kts 304°
2026-05-05 09:09 42.92264 90.81914 32019 ft 449 kts 299°
2026-05-05 09:10 42.95567 90.74731 32014 ft 447 kts 298°
2026-05-05 09:10 42.98832 90.67534 32023 ft 447 kts 298°
2026-05-05 09:11 43.02098 90.60322 32029 ft 447 kts 298°
2026-05-05 09:11 43.05358 90.53114 32056 ft 447 kts 298°
2026-05-05 09:12 43.08610 90.45904 32085 ft 447 kts 298°
2026-05-05 09:12 43.11855 90.38690 32106 ft 445 kts 298°
2026-05-05 09:13 43.15085 90.31496 32117 ft 445 kts 297°
2026-05-05 09:13 43.18309 90.24298 32129 ft 444 kts 297°
2026-05-05 09:14 43.21518 90.17110 32145 ft 443 kts 297°
2026-05-05 09:14 43.24724 90.09914 32162 ft 444 kts 297°
2026-05-05 09:15 43.27930 90.02694 32175 ft 445 kts 297°
2026-05-05 09:15 43.31137 89.95465 32182 ft 444 kts 297°
2026-05-05 09:16 43.34328 89.88246 32173 ft 444 kts 297°
2026-05-05 09:16 43.37519 89.81013 32174 ft 443 kts 297°
2026-05-05 09:17 43.40693 89.73800 32179 ft 442 kts 297°
2026-05-05 09:17 43.43863 89.66578 32176 ft 441 kts 298°
2026-05-05 09:18 43.47021 89.59368 32178 ft 441 kts 297°
2026-05-05 09:18 43.50178 89.52144 32183 ft 441 kts 297°
2026-05-05 09:19 43.53324 89.44924 32182 ft 441 kts 297°
2026-05-05 09:19 43.56461 89.37722 32192 ft 439 kts 298°
2026-05-05 09:20 43.59660 89.30545 32202 ft 440 kts 297°
2026-05-05 09:20 43.62860 89.23377 32206 ft 439 kts 298°
2026-05-05 09:21 43.66041 89.16227 32214 ft 437 kts 298°
2026-05-05 09:21 43.69211 89.09085 32216 ft 438 kts 298°
2026-05-05 09:22 43.72369 89.01941 32222 ft 436 kts 298°
2026-05-05 09:22 43.75517 88.94810 32220 ft 436 kts 297°
2026-05-05 09:23 43.78660 88.87664 32229 ft 436 kts 297°
2026-05-05 09:23 43.81795 88.80520 32236 ft 435 kts 298°
2026-05-05 09:24 43.84930 88.73364 32243 ft 436 kts 297°
2026-05-05 09:24 43.88055 88.66207 32241 ft 436 kts 298°
2026-05-05 09:25 43.91173 88.59049 32247 ft 435 kts 297°
2026-05-05 09:25 43.94288 88.51889 32254 ft 435 kts 297°
2026-05-05 09:26 43.97395 88.44724 32254 ft 434 kts 297°
2026-05-05 09:26 44.00498 88.37542 32244 ft 436 kts 297°
2026-05-05 09:27 44.03606 88.30335 32250 ft 436 kts 297°
2026-05-05 09:27 44.06710 88.23125 32252 ft 436 kts 297°
2026-05-05 09:28 44.09810 88.15903 32243 ft 436 kts 297°
2026-05-05 09:28 44.12912 88.08664 32229 ft 437 kts 297°
2026-05-05 09:29 44.16014 88.01419 32215 ft 437 kts 298°
2026-05-05 09:29 44.19441 87.94418 32198 ft 440 kts 303°
2026-05-05 09:30 44.23105 87.87606 32186 ft 440 kts 304°
2026-05-05 09:30 44.26780 87.80797 32176 ft 440 kts 304°
2026-05-05 09:31 44.30450 87.73976 32166 ft 441 kts 304°
2026-05-05 09:31 44.34121 87.67150 32161 ft 441 kts 304°
2026-05-05 09:32 44.37849 87.60362 32155 ft 442 kts 305°
2026-05-05 09:32 44.41592 87.53568 32147 ft 443 kts 305°
2026-05-05 09:33 44.45325 87.46757 32146 ft 442 kts 305°
2026-05-05 09:33 44.49053 87.39938 32144 ft 443 kts 305°
2026-05-05 09:34 44.52778 87.33104 32140 ft 443 kts 305°
2026-05-05 09:34 44.56529 87.26289 32139 ft 443 kts 307°
2026-05-05 09:35 44.60418 87.19613 32129 ft 443 kts 307°
2026-05-05 09:35 44.66259 87.09580 32123 ft 444 kts 307°
2026-05-05 09:36 44.70144 87.02861 32119 ft 444 kts 307°
2026-05-05 09:36 44.74021 86.96135 32121 ft 444 kts 308°
2026-05-05 09:37 44.77907 86.89399 32119 ft 445 kts 308°
2026-05-05 09:37 44.81800 86.82642 32112 ft 445 kts 308°
2026-05-05 09:38 44.85673 86.75837 32111 ft 447 kts 308°
2026-05-05 09:38 44.89513 86.68983 32113 ft 447 kts 308°
2026-05-05 09:39 44.93351 86.62112 32109 ft 447 kts 308°
2026-05-05 09:39 44.97191 86.55235 32106 ft 448 kts 308°
2026-05-05 09:40 45.01035 86.48338 32100 ft 448 kts 308°
2026-05-05 09:40 45.04873 86.41435 32093 ft 449 kts 308°
2026-05-05 09:41 45.08716 86.34507 32095 ft 449 kts 308°
2026-05-05 09:41 45.12559 86.27559 32096 ft 450 kts 308°
2026-05-05 09:42 45.16401 86.20600 32102 ft 449 kts 308°
2026-05-05 09:42 45.20240 86.13628 32105 ft 450 kts 308°
2026-05-05 09:43 45.24079 86.06635 32108 ft 450 kts 308°
2026-05-05 09:43 45.27914 85.99640 32101 ft 451 kts 309°
2026-05-05 09:44 45.31749 85.92626 32101 ft 451 kts 309°
2026-05-05 09:44 45.35582 85.85591 32109 ft 451 kts 309°
2026-05-05 09:45 45.39417 85.78543 32102 ft 452 kts 309°
2026-05-05 09:45 45.43245 85.71485 32106 ft 451 kts 309°
2026-05-05 09:46 45.47071 85.64417 32110 ft 452 kts 309°
2026-05-05 09:46 45.50888 85.57350 32098 ft 452 kts 309°
2026-05-05 09:47 45.54704 85.50261 32100 ft 452 kts 309°
2026-05-05 09:47 45.58518 85.43164 32111 ft 451 kts 310°
2026-05-05 09:48 45.62325 85.36063 32109 ft 452 kts 310°
2026-05-05 09:48 45.66128 85.28947 32113 ft 452 kts 310°
2026-05-05 09:49 45.69935 85.21809 32120 ft 453 kts 310°
2026-05-05 09:49 45.73753 85.14675 32125 ft 453 kts 310°
2026-05-05 09:50 45.77566 85.07547 32136 ft 452 kts 310°
2026-05-05 09:50 45.81373 85.00405 32162 ft 452 kts 310°
2026-05-05 09:51 45.85181 84.93257 32185 ft 452 kts 310°
2026-05-05 09:51 45.88978 84.86103 32202 ft 452 kts 310°
2026-05-05 09:52 45.92773 84.78933 32224 ft 452 kts 311°
2026-05-05 09:52 45.96564 84.71761 32228 ft 451 kts 311°
2026-05-05 09:53 46.00344 84.64583 32252 ft 452 kts 311°
2026-05-05 09:53 46.04124 84.57394 32249 ft 452 kts 311°
2026-05-05 09:54 46.07898 84.50195 32279 ft 452 kts 311°
2026-05-05 09:54 46.11670 84.42981 32272 ft 451 kts 311°
2026-05-05 09:55 46.15428 84.35776 32265 ft 451 kts 311°
2026-05-05 09:55 46.19188 84.28551 32285 ft 451 kts 310°
2026-05-05 09:56 46.22940 84.21323 32276 ft 451 kts 310°
2026-05-05 09:56 46.26682 84.14093 32291 ft 451 kts 311°
2026-05-05 09:57 46.30404 84.06828 32296 ft 451 kts 311°
2026-05-05 09:57 46.34127 83.99545 32297 ft 452 kts 311°
2026-05-05 09:58 46.37847 83.92255 32320 ft 451 kts 311°
2026-05-05 09:58 46.41562 83.84956 32292 ft 450 kts 311°
2026-05-05 09:59 46.45260 83.77669 32294 ft 451 kts 311°
2026-05-05 09:59 46.48962 83.70363 32275 ft 451 kts 310°
2026-05-05 10:00 46.52661 83.63040 32263 ft 451 kts 310°
2026-05-05 10:00 46.56350 83.55712 32261 ft 450 kts 310°
2026-05-05 10:01 46.60040 83.48377 32271 ft 451 kts 310°
2026-05-05 10:01 46.63720 83.41024 32270 ft 451 kts 310°
2026-05-05 10:02 46.67269 83.33489 32269 ft 454 kts 306°
2026-05-05 10:02 46.70629 83.25743 32274 ft 454 kts 306°
2026-05-05 10:03 46.73977 83.17978 32265 ft 454 kts 306°
2026-05-05 10:03 46.77328 83.10197 32270 ft 455 kts 306°
2026-05-05 10:04 46.80671 83.02415 32272 ft 454 kts 306°
2026-05-05 10:04 46.83677 82.94293 32274 ft 458 kts 299°
2026-05-05 10:05 46.86020 82.85627 32270 ft 462 kts 292°
2026-05-05 10:05 46.87647 82.76541 32269 ft 466 kts 285°
2026-05-05 10:06 46.88671 82.67217 32261 ft 466 kts 283°
2026-05-05 10:06 46.89615 82.57859 32259 ft 467 kts 283°
2026-05-05 10:07 46.90555 82.48513 32253 ft 466 kts 283°
2026-05-05 10:07 46.91489 82.39169 32252 ft 466 kts 283°
2026-05-05 10:08 46.92419 82.29816 32241 ft 466 kts 282°
2026-05-05 10:08 46.93340 82.20466 32234 ft 466 kts 282°
2026-05-05 10:09 46.94253 82.11123 32224 ft 465 kts 282°
2026-05-05 10:09 46.95160 82.01787 32216 ft 465 kts 282°
2026-05-05 10:10 46.96056 81.92447 32204 ft 464 kts 282°
2026-05-05 10:10 46.96927 81.83117 32203 ft 465 kts 281°
2026-05-05 10:11 46.97790 81.73779 32201 ft 464 kts 281°
2026-05-05 10:11 46.98648 81.64448 32195 ft 464 kts 281°
2026-05-05 10:12 46.99499 81.55116 32196 ft 464 kts 281°
2026-05-05 10:12 47.00343 81.45778 32195 ft 464 kts 281°
2026-05-05 10:13 47.01179 81.36446 32187 ft 463 kts 281°
2026-05-05 10:13 47.02009 81.27110 32188 ft 464 kts 281°
2026-05-05 10:14 47.02833 81.17771 32194 ft 463 kts 281°
2026-05-05 10:14 47.03650 81.08439 32203 ft 463 kts 280°
2026-05-05 10:15 47.04450 80.99116 32205 ft 463 kts 280°
2026-05-05 10:15 47.05239 80.89793 32207 ft 462 kts 280°
2026-05-05 10:16 47.06023 80.80468 32205 ft 462 kts 280°
2026-05-05 10:16 47.06803 80.71144 32204 ft 462 kts 280°
2026-05-05 10:17 47.07576 80.61822 32203 ft 462 kts 280°
2026-05-05 10:17 47.08343 80.52496 32202 ft 462 kts 280°
2026-05-05 10:18 47.09101 80.43164 32202 ft 462 kts 280°
2026-05-05 10:18 47.09852 80.33825 32205 ft 462 kts 279°
2026-05-05 10:19 47.10598 80.24471 32205 ft 462 kts 279°
2026-05-05 10:19 47.11335 80.15139 32206 ft 462 kts 279°
2026-05-05 10:20 47.12065 80.05811 32205 ft 462 kts 279°
2026-05-05 10:20 47.12789 79.96473 32209 ft 462 kts 279°
2026-05-05 10:21 47.13501 79.87140 32206 ft 461 kts 279°
2026-05-05 10:21 47.14215 79.77801 32203 ft 462 kts 279°
2026-05-05 10:22 47.14932 79.68481 32192 ft 461 kts 279°
2026-05-05 10:22 47.15643 79.59164 32194 ft 460 kts 279°
2026-05-05 10:23 47.16344 79.49872 32203 ft 459 kts 279°
2026-05-05 10:23 47.17037 79.40589 32207 ft 459 kts 279°
2026-05-05 10:24 47.17725 79.31292 32204 ft 459 kts 278°
2026-05-05 10:24 47.18406 79.21999 32207 ft 459 kts 278°
2026-05-05 10:25 47.19072 79.12713 32208 ft 459 kts 278°
2026-05-05 10:25 47.19707 79.03409 32207 ft 459 kts 278°
2026-05-05 10:26 47.20336 78.94098 32208 ft 459 kts 278°
2026-05-05 10:26 47.20961 78.84782 32220 ft 459 kts 278°
2026-05-05 10:27 47.21580 78.75470 32222 ft 459 kts 278°
2026-05-05 10:27 47.22193 78.66151 32232 ft 459 kts 278°
2026-05-05 10:28 47.22799 78.56834 32237 ft 459 kts 277°
2026-05-05 10:28 47.23396 78.47514 32242 ft 459 kts 277°
2026-05-05 10:29 47.23988 78.38191 32247 ft 459 kts 277°
2026-05-05 10:29 47.24571 78.28853 32255 ft 459 kts 277°
2026-05-05 10:30 47.25146 78.19526 32261 ft 460 kts 277°
2026-05-05 10:30 47.25714 78.10189 32263 ft 460 kts 277°
2026-05-05 10:31 47.26276 78.00839 32264 ft 460 kts 277°
2026-05-05 10:31 47.26831 77.91489 32265 ft 460 kts 277°
2026-05-05 10:32 47.27378 77.82130 32260 ft 460 kts 276°
2026-05-05 10:32 47.27915 77.72774 32258 ft 460 kts 276°
2026-05-05 10:33 47.28444 77.63427 32259 ft 460 kts 276°
2026-05-05 10:33 47.28966 77.54080 32257 ft 459 kts 276°
2026-05-05 10:34 47.29482 77.44739 32256 ft 459 kts 276°
2026-05-05 10:34 47.29992 77.35391 32258 ft 460 kts 276°
2026-05-05 10:35 47.30495 77.26027 32257 ft 460 kts 276°
2026-05-05 10:35 47.30994 77.16661 32257 ft 460 kts 276°
2026-05-05 10:36 47.31491 77.07291 32252 ft 460 kts 277°
2026-05-05 10:36 47.32332 76.97992 32254 ft 459 kts 279°
2026-05-05 10:37 47.33270 76.88723 32253 ft 459 kts 279°
2026-05-05 10:37 47.34207 76.79452 32255 ft 459 kts 279°
2026-05-05 10:38 47.35137 76.70172 32251 ft 459 kts 279°
2026-05-05 10:38 47.36037 76.61101 32256 ft 459 kts 279°
2026-05-05 10:39 47.36951 76.51821 32252 ft 459 kts 279°
2026-05-05 10:39 47.37858 76.42533 32252 ft 459 kts 279°
2026-05-05 10:40 47.38756 76.33234 32253 ft 459 kts 279°
2026-05-05 10:40 47.39647 76.23945 32253 ft 459 kts 278°
2026-05-05 10:41 47.40531 76.14642 32252 ft 459 kts 279°
2026-05-05 10:41 47.41410 76.05333 32254 ft 459 kts 278°
2026-05-05 10:42 47.42713 75.91354 32256 ft 459 kts 279°
2026-05-05 10:43 47.43571 75.82038 32256 ft 459 kts 278°
2026-05-05 10:43 47.44422 75.72726 32255 ft 458 kts 278°
2026-05-05 10:44 47.45262 75.63445 32256 ft 458 kts 278°
2026-05-05 10:44 47.46093 75.54162 32254 ft 457 kts 278°
2026-05-05 10:45 47.46917 75.44883 32258 ft 457 kts 278°
2026-05-05 10:45 47.47732 75.35602 32258 ft 457 kts 278°
2026-05-05 10:46 47.48540 75.26324 32261 ft 456 kts 277°
2026-05-05 10:46 47.49341 75.17040 32262 ft 457 kts 277°
2026-05-05 10:47 47.50135 75.07743 32263 ft 457 kts 277°
2026-05-05 10:47 47.50921 74.98453 32263 ft 456 kts 277°
2026-05-05 10:48 47.51698 74.89179 32265 ft 456 kts 277°
2026-05-05 10:48 47.52467 74.79906 32268 ft 456 kts 277°
2026-05-05 10:49 47.53229 74.70626 32269 ft 456 kts 277°
2026-05-05 10:49 47.53981 74.61356 32264 ft 456 kts 277°
2026-05-05 10:50 47.54731 74.52075 32263 ft 456 kts 277°
2026-05-05 10:50 47.55472 74.42789 32257 ft 456 kts 277°
2026-05-05 10:51 47.56204 74.33502 32259 ft 455 kts 276°
2026-05-05 10:51 47.56928 74.24220 32255 ft 455 kts 276°
2026-05-05 10:52 47.57646 74.14923 32257 ft 456 kts 276°
2026-05-05 10:52 47.58355 74.05623 32255 ft 456 kts 276°
2026-05-05 10:53 47.59058 73.96321 32257 ft 456 kts 276°
2026-05-05 10:53 47.59753 73.87010 32257 ft 457 kts 276°
2026-05-05 10:54 47.60441 73.77690 32259 ft 456 kts 276°
2026-05-05 10:54 47.61119 73.68374 32258 ft 456 kts 276°
2026-05-05 10:55 47.61790 73.59073 32261 ft 456 kts 276°
2026-05-05 10:55 47.62454 73.49775 32264 ft 456 kts 276°
2026-05-05 10:56 47.63111 73.40456 32265 ft 456 kts 276°
2026-05-05 10:56 47.63760 73.31131 32267 ft 456 kts 275°
2026-05-05 10:57 47.64402 73.21804 32269 ft 456 kts 275°
2026-05-05 10:57 47.65037 73.12476 32269 ft 457 kts 275°
2026-05-05 10:58 47.65665 73.03139 32270 ft 457 kts 275°
2026-05-05 10:58 47.66285 72.93796 32274 ft 457 kts 275°
2026-05-05 10:59 47.66899 72.84447 32272 ft 457 kts 275°
2026-05-05 10:59 47.67503 72.75102 32274 ft 457 kts 275°
2026-05-05 11:00 47.68100 72.65763 32279 ft 456 kts 275°
2026-05-05 11:00 47.68689 72.56420 32279 ft 456 kts 275°
2026-05-05 11:01 47.69273 72.47069 32282 ft 457 kts 275°
2026-05-05 11:01 47.69847 72.37720 32282 ft 457 kts 275°
2026-05-05 11:02 47.70416 72.28355 32280 ft 457 kts 274°
2026-05-05 11:02 47.70976 72.18995 32276 ft 457 kts 274°
2026-05-05 11:03 47.71530 72.09628 32276 ft 457 kts 274°
2026-05-05 11:03 47.72076 72.00269 32271 ft 457 kts 274°
2026-05-05 11:04 47.72617 71.90891 32265 ft 457 kts 274°
2026-05-05 11:04 47.73143 71.81526 32261 ft 457 kts 273°
2026-05-05 11:05 47.73543 71.72150 32259 ft 457 kts 272°
2026-05-05 11:05 47.73916 71.62762 32253 ft 457 kts 272°
2026-05-05 11:06 47.74292 71.53381 32246 ft 457 kts 272°
2026-05-05 11:06 47.74665 71.43988 32244 ft 457 kts 272°
2026-05-05 11:07 47.75032 71.34602 32238 ft 457 kts 272°
2026-05-05 11:07 47.75393 71.25224 32233 ft 456 kts 272°
2026-05-05 11:08 47.75746 71.15834 32229 ft 457 kts 272°
2026-05-05 11:08 47.76091 71.06442 32235 ft 457 kts 272°
2026-05-05 11:09 47.76434 70.97049 32238 ft 457 kts 272°
2026-05-05 11:09 47.76767 70.87642 32241 ft 457 kts 271°
2026-05-05 11:10 47.77094 70.78234 32237 ft 457 kts 271°
2026-05-05 11:10 47.77410 70.68839 32230 ft 457 kts 271°
2026-05-05 11:11 47.77713 70.59440 32228 ft 456 kts 271°
2026-05-05 11:11 47.78002 70.50046 32225 ft 456 kts 271°
2026-05-05 11:12 47.78287 70.40663 32219 ft 456 kts 271°
2026-05-05 11:12 47.78567 70.31272 32212 ft 456 kts 271°
2026-05-05 11:13 47.78840 70.21889 32201 ft 456 kts 271°
2026-05-05 11:13 47.79106 70.12492 32195 ft 456 kts 271°
2026-05-05 11:14 47.79365 70.03100 32190 ft 456 kts 271°
2026-05-05 11:14 47.79616 69.93708 32181 ft 457 kts 271°
2026-05-05 11:15 47.79859 69.84311 32170 ft 457 kts 271°
2026-05-05 11:15 47.80096 69.74908 32169 ft 457 kts 271°
2026-05-05 11:16 47.80325 69.65495 32169 ft 458 kts 271°
2026-05-05 11:16 47.80546 69.56075 32166 ft 458 kts 271°
2026-05-05 11:17 47.80760 69.46645 32160 ft 458 kts 271°
2026-05-05 11:17 47.80966 69.37224 32162 ft 458 kts 271°
2026-05-05 11:18 47.81165 69.27795 32157 ft 457 kts 270°
2026-05-05 11:18 47.81356 69.18359 32158 ft 458 kts 270°
2026-05-05 11:19 47.81540 69.08917 32154 ft 459 kts 270°
2026-05-05 11:19 47.81720 68.99460 32152 ft 459 kts 270°
2026-05-05 11:20 47.81888 68.90000 32152 ft 459 kts 270°
2026-05-05 11:20 47.81783 68.80555 32150 ft 458 kts 265°
2026-05-05 11:21 47.81075 68.71188 32149 ft 457 kts 261°
2026-05-05 11:21 47.80227 68.61847 32149 ft 458 kts 261°
2026-05-05 11:22 47.79372 68.52508 32147 ft 457 kts 261°
2026-05-05 11:22 47.78510 68.43179 32147 ft 457 kts 261°
2026-05-05 11:23 47.77641 68.33839 32143 ft 458 kts 261°
2026-05-05 11:23 47.76764 68.24493 32138 ft 458 kts 261°
2026-05-05 11:24 47.75881 68.15160 32137 ft 458 kts 261°
2026-05-05 11:24 47.74990 68.05824 32133 ft 458 kts 261°
2026-05-05 11:25 47.74094 67.96499 32134 ft 457 kts 261°
2026-05-05 11:25 47.73192 67.87178 32136 ft 457 kts 261°
2026-05-05 11:26 47.72268 67.77862 32137 ft 457 kts 260°
2026-05-05 11:26 47.70989 67.68661 32138 ft 457 kts 257°
2026-05-05 11:27 47.69619 67.59481 32139 ft 457 kts 257°
2026-05-05 11:27 47.68245 67.50303 32144 ft 457 kts 257°
2026-05-05 11:28 47.66864 67.41127 32139 ft 457 kts 257°
2026-05-05 11:28 47.65475 67.31943 32142 ft 458 kts 256°
2026-05-05 11:29 47.64082 67.22789 32140 ft 457 kts 256°
2026-05-05 11:29 47.62681 67.13629 32136 ft 457 kts 256°
2026-05-05 11:30 47.61273 67.04468 32139 ft 457 kts 256°
2026-05-05 11:30 47.59858 66.95309 32137 ft 458 kts 256°
2026-05-05 11:31 47.58438 66.86160 32134 ft 458 kts 256°
2026-05-05 11:31 47.57009 66.77016 32132 ft 457 kts 257°
2026-05-05 11:32 47.55552 66.67872 32136 ft 458 kts 256°
2026-05-05 11:32 47.54042 66.58754 32135 ft 458 kts 256°
2026-05-05 11:33 47.52529 66.49635 32137 ft 457 kts 256°
2026-05-05 11:33 47.51015 66.40532 32132 ft 457 kts 256°
2026-05-05 11:34 47.49495 66.31422 32121 ft 457 kts 255°
2026-05-05 11:34 47.47970 66.22327 32114 ft 457 kts 255°
2026-05-05 11:35 47.46439 66.13241 32111 ft 457 kts 255°
2026-05-05 11:35 47.44903 66.04160 32108 ft 457 kts 255°
2026-05-05 11:36 47.43362 65.95086 32111 ft 457 kts 255°
2026-05-05 11:36 47.41809 65.86015 32107 ft 457 kts 255°
2026-05-05 11:37 47.40283 65.76938 32102 ft 457 kts 256°
2026-05-05 11:37 47.38785 65.67866 32094 ft 457 kts 256°
2026-05-05 11:38 47.37281 65.58796 32094 ft 456 kts 256°
2026-05-05 11:38 47.35770 65.49741 32083 ft 456 kts 256°
2026-05-05 11:39 47.34255 65.40697 32076 ft 456 kts 256°
2026-05-05 11:39 47.32728 65.31634 32071 ft 457 kts 256°
2026-05-05 11:40 47.31197 65.22591 32062 ft 456 kts 256°
2026-05-05 11:40 47.29660 65.13553 32060 ft 456 kts 256°
2026-05-05 11:41 47.28116 65.04529 32054 ft 456 kts 256°
2026-05-05 11:41 47.26561 64.95516 32051 ft 456 kts 256°
2026-05-05 11:42 47.24994 64.86509 32049 ft 456 kts 256°
2026-05-05 11:42 47.23426 64.77517 32046 ft 456 kts 256°
2026-05-05 11:43 47.21853 64.68522 32046 ft 455 kts 256°
2026-05-05 11:43 47.20274 64.59533 32047 ft 456 kts 256°
2026-05-05 11:44 47.18685 64.50554 32043 ft 455 kts 256°
2026-05-05 11:44 47.17080 64.41537 32038 ft 455 kts 256°
2026-05-05 11:45 47.15463 64.32478 32125 ft 460 kts 256°
2026-05-05 11:45 47.14652 64.27941 32518 ft 460 kts 256°
2026-05-05 11:45 47.13837 64.23395 33043 ft 457 kts 256°
2026-05-05 11:45 47.13031 64.18910 33541 ft 453 kts 256°
2026-05-05 11:46 47.12229 64.14460 33967 ft 452 kts 256°
2026-05-05 11:46 47.11430 64.10022 34329 ft 451 kts 256°
2026-05-05 11:46 47.10629 64.05583 34635 ft 451 kts 256°
2026-05-05 11:46 47.09825 64.01143 34919 ft 450 kts 256°
2026-05-05 11:47 47.09019 63.96698 35187 ft 450 kts 256°
2026-05-05 11:47 47.08211 63.92257 35447 ft 449 kts 255°
2026-05-05 11:47 47.07406 63.87847 35702 ft 449 kts 255°
2026-05-05 11:47 47.06602 63.83454 35892 ft 448 kts 255°
2026-05-05 11:48 47.04981 63.74633 35918 ft 448 kts 255°
2026-05-05 11:48 47.03357 63.65843 35914 ft 447 kts 255°
2026-05-05 11:49 47.01729 63.57079 35922 ft 447 kts 255°
2026-05-05 11:49 47.00097 63.48337 35920 ft 447 kts 255°
2026-05-05 11:50 46.98458 63.39586 35919 ft 447 kts 255°
2026-05-05 11:50 46.96811 63.30825 35925 ft 448 kts 254°
2026-05-05 11:51 46.95160 63.22086 35915 ft 447 kts 254°
2026-05-05 11:51 46.93501 63.13344 35910 ft 448 kts 254°
2026-05-05 11:52 46.91835 63.04602 35911 ft 447 kts 254°
2026-05-05 11:52 46.90165 62.95885 35917 ft 446 kts 254°
2026-05-05 11:53 46.88491 62.87181 35915 ft 446 kts 254°
2026-05-05 11:53 46.86814 62.78496 35919 ft 445 kts 255°
2026-05-05 11:54 46.85137 62.69824 35928 ft 445 kts 254°
2026-05-05 11:54 46.83453 62.61176 35910 ft 444 kts 254°
2026-05-05 11:55 46.81756 62.52549 35932 ft 444 kts 254°
2026-05-05 11:55 46.80050 62.43928 35927 ft 444 kts 254°
2026-05-05 11:56 46.78342 62.35318 35927 ft 442 kts 255°
2026-05-05 11:56 46.76636 62.26732 35937 ft 442 kts 254°
2026-05-05 11:57 46.74926 62.18161 35924 ft 441 kts 254°
2026-05-05 11:57 46.73212 62.09611 35930 ft 441 kts 254°
2026-05-05 11:58 46.71497 62.01081 35924 ft 440 kts 254°
2026-05-05 11:58 46.69778 61.92566 35922 ft 440 kts 254°
2026-05-05 11:59 46.68051 61.84060 35923 ft 439 kts 254°
2026-05-05 11:59 46.66320 61.75559 35927 ft 439 kts 254°
2026-05-05 12:00 46.64586 61.67088 35921 ft 438 kts 254°
2026-05-05 12:00 46.62846 61.58618 35921 ft 438 kts 254°
2026-05-05 12:01 46.61102 61.50167 35927 ft 437 kts 254°
2026-05-05 12:01 46.59357 61.41752 35929 ft 436 kts 254°
2026-05-05 12:02 46.57609 61.33339 35921 ft 435 kts 253°
2026-05-05 12:02 46.55859 61.24960 35928 ft 435 kts 254°
2026-05-05 12:03 46.54105 61.16589 35931 ft 434 kts 254°
2026-05-05 12:03 46.52348 61.08248 35941 ft 433 kts 254°
2026-05-05 12:04 46.50590 60.99928 35951 ft 432 kts 254°
2026-05-05 12:04 46.48826 60.91624 35949 ft 432 kts 254°
2026-05-05 12:05 46.47056 60.83326 35950 ft 432 kts 253°
2026-05-05 12:05 46.45284 60.75041 35943 ft 432 kts 254°
2026-05-05 12:06 46.43507 60.66760 35940 ft 431 kts 254°
2026-05-05 12:06 46.41722 60.58488 35939 ft 431 kts 253°
2026-05-05 12:07 46.39933 60.50228 35937 ft 432 kts 253°
2026-05-05 12:07 46.38135 60.41958 35931 ft 432 kts 253°
2026-05-05 12:08 46.36328 60.33682 35927 ft 433 kts 253°
2026-05-05 12:08 46.34512 60.25400 35930 ft 433 kts 253°
2026-05-05 12:09 46.32692 60.17132 35930 ft 432 kts 253°
2026-05-05 12:09 46.30869 60.08885 35932 ft 432 kts 253°
2026-05-05 12:10 46.29042 60.00637 35930 ft 431 kts 252°
2026-05-05 12:10 46.27214 59.92418 35928 ft 431 kts 252°
2026-05-05 12:11 46.25382 59.84202 35926 ft 431 kts 252°
2026-05-05 12:11 46.23540 59.75989 35923 ft 432 kts 252°
2026-05-05 12:12 46.21679 59.67766 35924 ft 432 kts 252°
2026-05-05 12:12 46.19799 59.59550 35921 ft 433 kts 252°
2026-05-05 12:13 46.17913 59.51323 35913 ft 433 kts 252°
2026-05-05 12:13 46.16027 59.43112 35905 ft 433 kts 252°
2026-05-05 12:14 46.14135 59.34904 35902 ft 433 kts 251°
2026-05-05 12:14 46.12236 59.26689 35900 ft 433 kts 251°
2026-05-05 12:15 46.10331 59.18480 35896 ft 433 kts 251°
2026-05-05 12:15 46.08420 59.10281 35891 ft 433 kts 251°
2026-05-05 12:16 46.06508 59.02103 35893 ft 433 kts 251°
2026-05-05 12:16 46.04586 58.93914 35902 ft 433 kts 251°
2026-05-05 12:17 46.02659 58.85733 35908 ft 433 kts 251°
2026-05-05 12:17 46.00720 58.77535 35904 ft 433 kts 251°
2026-05-05 12:18 45.98780 58.69364 35898 ft 433 kts 251°
2026-05-05 12:18 45.96834 58.61195 35898 ft 434 kts 251°
2026-05-05 12:19 45.94880 58.53018 35899 ft 433 kts 251°
2026-05-05 12:19 45.92920 58.44858 35899 ft 434 kts 251°
2026-05-05 12:20 45.90957 58.36710 35892 ft 433 kts 251°
2026-05-05 12:20 45.88988 58.28573 35888 ft 432 kts 250°
2026-05-05 12:21 45.87024 58.20466 35880 ft 432 kts 250°
2026-05-05 12:21 45.85052 58.12363 35877 ft 432 kts 250°
2026-05-05 12:22 45.83069 58.04247 35875 ft 433 kts 250°
2026-05-05 12:22 45.81084 57.96147 35869 ft 432 kts 250°
2026-05-05 12:23 45.79092 57.88046 35859 ft 432 kts 250°
2026-05-05 12:23 45.77097 57.79954 35856 ft 432 kts 250°
2026-05-05 12:24 45.75098 57.71875 35853 ft 431 kts 250°
2026-05-05 12:24 45.73094 57.63826 35847 ft 430 kts 250°
2026-05-05 12:25 45.71080 57.55801 35845 ft 430 kts 250°
2026-05-05 12:25 45.69067 57.47791 35839 ft 429 kts 250°
2026-05-05 12:26 45.67052 57.39791 35835 ft 429 kts 250°
2026-05-05 12:26 45.65033 57.31793 35831 ft 428 kts 249°
2026-05-05 12:27 45.63014 57.23821 35827 ft 428 kts 249°
2026-05-05 12:27 45.60987 57.15849 35822 ft 428 kts 249°
2026-05-05 12:28 45.58954 57.07878 35823 ft 428 kts 249°
2026-05-05 12:28 45.56920 56.99925 35818 ft 428 kts 249°
2026-05-05 12:29 45.54880 56.91978 35809 ft 428 kts 249°
2026-05-05 12:29 45.52837 56.84047 35809 ft 427 kts 249°
2026-05-05 12:30 45.50788 56.76124 35816 ft 427 kts 249°
2026-05-05 12:30 45.48737 56.68222 35819 ft 427 kts 249°
2026-05-05 12:31 45.46681 56.60325 35817 ft 427 kts 249°
2026-05-05 12:31 45.44623 56.52444 35818 ft 426 kts 249°
2026-05-05 12:32 45.42560 56.44571 35818 ft 426 kts 249°
2026-05-05 12:32 45.40490 56.36696 35816 ft 426 kts 249°
2026-05-05 12:33 45.38415 56.28833 35812 ft 426 kts 248°
2026-05-05 12:33 45.36337 56.20981 35808 ft 426 kts 248°
2026-05-05 12:34 45.34253 56.13134 35804 ft 425 kts 248°
2026-05-05 12:34 45.32166 56.05299 35795 ft 425 kts 248°
2026-05-05 12:35 45.30072 55.97465 35793 ft 426 kts 248°
2026-05-05 12:35 45.27973 55.89638 35791 ft 426 kts 248°
2026-05-05 12:36 45.25868 55.81814 35790 ft 426 kts 248°
2026-05-05 12:36 45.23759 55.73992 35786 ft 426 kts 248°
2026-05-05 12:37 45.21644 55.66184 35783 ft 426 kts 248°
2026-05-05 12:37 45.19519 55.58359 35787 ft 426 kts 248°
2026-05-05 12:38 45.17395 55.50552 35787 ft 426 kts 248°
2026-05-05 12:38 45.15264 55.42738 35787 ft 427 kts 248°
2026-05-05 12:39 45.13119 55.34918 35787 ft 428 kts 247°
2026-05-05 12:39 45.10776 55.27224 35784 ft 426 kts 242°
2026-05-05 12:40 45.07796 55.20014 35783 ft 426 kts 235°
2026-05-05 12:40 45.04216 55.13375 35785 ft 426 kts 229°
2026-05-05 12:41 45.00087 55.07407 35785 ft 427 kts 223°
2026-05-05 12:41 44.95741 55.01732 35787 ft 426 kts 223°
2026-05-05 12:42 44.91396 54.96080 35785 ft 426 kts 223°
2026-05-05 12:42 44.87050 54.90451 35787 ft 425 kts 223°
2026-05-05 12:43 44.82709 54.84844 35790 ft 424 kts 223°
2026-05-05 12:43 44.78378 54.79258 35797 ft 423 kts 223°
2026-05-05 12:44 44.74047 54.73691 35799 ft 423 kts 223°
2026-05-05 12:44 44.69737 54.68089 35813 ft 422 kts 225°
2026-05-05 12:45 44.65745 54.62072 35815 ft 422 kts 230°
2026-05-05 12:45 44.62172 54.55582 35816 ft 422 kts 234°
2026-05-05 12:46 44.58821 54.48861 35819 ft 421 kts 234°
2026-05-05 12:46 44.55466 54.42157 35812 ft 421 kts 234°
2026-05-05 12:47 44.52107 54.35449 35814 ft 422 kts 234°
2026-05-05 12:47 44.48747 54.28751 35815 ft 421 kts 234°
2026-05-05 12:48 44.45383 54.22056 35815 ft 422 kts 234°
2026-05-05 12:48 44.42011 54.15356 35815 ft 422 kts 234°
2026-05-05 12:49 44.38635 54.08667 35821 ft 422 kts 234°
2026-05-05 12:49 44.35255 54.01982 35824 ft 422 kts 234°
2026-05-05 12:50 44.31875 53.95314 35831 ft 422 kts 234°
2026-05-05 12:50 44.28490 53.88651 35828 ft 422 kts 233°
2026-05-05 12:51 44.25107 53.82006 35826 ft 421 kts 233°
2026-05-05 12:51 44.21723 53.75373 35820 ft 421 kts 233°
2026-05-05 12:52 44.18334 53.68751 35827 ft 421 kts 233°
2026-05-05 12:52 44.14943 53.62135 35818 ft 421 kts 233°
2026-05-05 12:53 44.11548 53.55529 35827 ft 421 kts 233°
2026-05-05 12:53 44.08143 53.48917 35825 ft 422 kts 233°
2026-05-05 12:54 44.03027 53.39011 35824 ft 421 kts 233°
2026-05-05 12:55 43.99611 53.32408 35815 ft 421 kts 233°
2026-05-05 12:55 43.96206 53.25847 35807 ft 420 kts 233°
2026-05-05 12:56 43.92802 53.19290 35806 ft 419 kts 232°
2026-05-05 12:56 43.89391 53.12748 35815 ft 419 kts 232°
2026-05-05 12:57 43.85973 53.06228 35814 ft 419 kts 232°
2026-05-05 12:57 43.82550 52.99720 35821 ft 419 kts 232°
2026-05-05 12:58 43.79132 52.93216 35822 ft 419 kts 232°
2026-05-05 12:58 43.75712 52.86719 35835 ft 419 kts 232°
2026-05-05 12:59 43.72295 52.80231 35842 ft 418 kts 232°
2026-05-05 12:59 43.68879 52.73755 35842 ft 418 kts 232°
2026-05-05 13:00 43.63736 52.64081 35837 ft 417 kts 232°
2026-05-05 13:01 43.56853 52.51256 35845 ft 417 kts 232°
2026-05-05 13:01 43.53419 52.44857 35853 ft 416 kts 232°
2026-05-05 13:02 43.49980 52.38462 35848 ft 417 kts 232°
2026-05-05 13:02 43.46534 52.32070 35858 ft 416 kts 232°
2026-05-05 13:03 43.43087 52.25685 35859 ft 416 kts 231°
2026-05-05 13:03 43.39640 52.19311 35857 ft 416 kts 231°
2026-05-05 13:04 43.36189 52.12945 35870 ft 416 kts 232°
2026-05-05 13:04 43.32738 52.06593 35870 ft 416 kts 232°
2026-05-05 13:05 43.29292 52.00261 35867 ft 415 kts 232°
2026-05-05 13:05 43.25843 51.93938 35852 ft 415 kts 231°
2026-05-05 13:06 43.22388 51.87624 35849 ft 415 kts 232°
2026-05-05 13:06 43.18929 51.81311 35850 ft 415 kts 231°
2026-05-05 13:07 43.15463 51.74996 35865 ft 415 kts 231°
2026-05-05 13:07 43.11996 51.68697 35862 ft 415 kts 231°
2026-05-05 13:08 43.08523 51.62400 35875 ft 415 kts 232°
2026-05-05 13:08 43.05048 51.56112 35862 ft 416 kts 232°
2026-05-05 13:09 43.01571 51.49834 35871 ft 415 kts 232°
2026-05-05 13:09 42.98093 51.43565 35877 ft 415 kts 232°
2026-05-05 13:10 42.94611 51.37303 35879 ft 415 kts 232°
2026-05-05 13:10 42.91127 51.31053 35881 ft 414 kts 231°
2026-05-05 13:11 42.87646 51.24818 35882 ft 414 kts 231°
2026-05-05 13:11 42.84170 51.18605 35885 ft 413 kts 231°
2026-05-05 13:12 42.80690 51.12400 35885 ft 413 kts 231°
2026-05-05 13:12 42.77209 51.06206 35888 ft 413 kts 231°
2026-05-05 13:13 42.73725 51.00015 35889 ft 413 kts 231°
2026-05-05 13:13 42.70237 50.93833 35890 ft 413 kts 231°
2026-05-05 13:14 42.66745 50.87656 35892 ft 413 kts 231°
2026-05-05 13:14 42.63254 50.81491 35891 ft 412 kts 231°
2026-05-05 13:15 42.59761 50.75338 35892 ft 413 kts 231°
2026-05-05 13:15 42.56264 50.69185 35889 ft 413 kts 231°
2026-05-05 13:16 42.52763 50.63035 35897 ft 413 kts 231°
2026-05-05 13:16 42.49266 50.56901 35905 ft 412 kts 231°
2026-05-05 13:17 42.45763 50.50772 35905 ft 412 kts 231°
2026-05-05 13:17 42.42330 50.44584 35901 ft 413 kts 233°
2026-05-05 13:18 42.38989 50.38288 35902 ft 413 kts 233°
2026-05-05 13:18 42.35647 50.31999 35909 ft 412 kts 232°
2026-05-05 13:19 42.32318 50.25728 35909 ft 412 kts 232°
2026-05-05 13:19 42.28985 50.19456 35913 ft 412 kts 232°
2026-05-05 13:20 42.25645 50.13187 35911 ft 412 kts 232°
2026-05-05 13:20 42.22303 50.06924 35914 ft 412 kts 232°
2026-05-05 13:21 42.18961 50.00670 35911 ft 412 kts 232°
2026-05-05 13:21 42.15610 49.94416 35918 ft 412 kts 232°
2026-05-05 13:22 42.12255 49.88163 35923 ft 413 kts 232°
2026-05-05 13:22 42.08896 49.81917 35924 ft 413 kts 232°
2026-05-05 13:23 42.05534 49.75680 35921 ft 412 kts 232°
2026-05-05 13:23 42.02176 49.69461 35924 ft 412 kts 232°
2026-05-05 13:24 41.98818 49.63252 35931 ft 412 kts 232°
2026-05-05 13:24 41.95456 49.57049 35929 ft 412 kts 232°
2026-05-05 13:25 41.92092 49.50853 35929 ft 412 kts 232°
2026-05-05 13:25 41.88698 49.44605 35947 ft 413 kts 232°
2026-05-05 13:26 41.85323 49.38408 35939 ft 412 kts 232°
2026-05-05 13:26 41.81939 49.32216 35940 ft 412 kts 231°
2026-05-05 13:27 41.78709 49.25880 35947 ft 413 kts 233°
2026-05-05 13:27 41.75517 49.19495 35947 ft 414 kts 233°
2026-05-05 13:28 41.72324 49.13105 35940 ft 414 kts 233°
2026-05-05 13:28 41.69129 49.06712 35941 ft 415 kts 233°
2026-05-05 13:29 41.65927 49.00315 35941 ft 415 kts 233°
2026-05-05 13:29 41.62719 48.93915 35941 ft 415 kts 233°
2026-05-05 13:30 41.59513 48.87521 35942 ft 415 kts 233°
2026-05-05 13:30 41.56298 48.81130 35922 ft 415 kts 234°
2026-05-05 13:31 41.53073 48.74748 35939 ft 415 kts 233°
2026-05-05 13:31 41.49658 48.68578 35932 ft 415 kts 231°
2026-05-05 13:32 41.46232 48.62409 35939 ft 415 kts 231°
2026-05-05 13:32 41.42796 48.56254 35932 ft 415 kts 231°
2026-05-05 13:33 41.39391 48.50068 35950 ft 415 kts 232°
2026-05-05 13:33 41.36011 48.43864 35940 ft 415 kts 232°
2026-05-05 13:34 41.32625 48.37653 35952 ft 415 kts 232°
2026-05-05 13:34 41.29225 48.31426 35973 ft 415 kts 231°
2026-05-05 13:35 41.25829 48.25218 35997 ft 415 kts 231°
2026-05-05 13:35 41.22442 48.19031 36021 ft 416 kts 231°
2026-05-05 13:36 41.19047 48.12847 36025 ft 415 kts 231°
2026-05-05 13:36 41.15721 48.06615 36020 ft 416 kts 234°
2026-05-05 13:37 41.12834 47.99976 36025 ft 418 kts 239°
2026-05-05 13:37 41.10473 47.92941 36015 ft 421 kts 245°
2026-05-05 13:38 41.08671 47.85566 36012 ft 424 kts 250°
2026-05-05 13:38 41.07293 47.77982 36000 ft 425 kts 252°
2026-05-05 13:39 41.05942 47.70404 35988 ft 424 kts 252°
2026-05-05 13:39 41.04586 47.62829 35968 ft 423 kts 252°
2026-05-05 13:40 41.03233 47.55272 35960 ft 424 kts 252°
2026-05-05 13:40 41.01870 47.47696 35936 ft 424 kts 252°
2026-05-05 13:41 41.00502 47.40128 35929 ft 424 kts 252°
2026-05-05 13:41 40.99130 47.32556 35916 ft 424 kts 251°
2026-05-05 13:42 40.97755 47.24999 35908 ft 423 kts 251°
2026-05-05 13:42 40.96382 47.17453 35897 ft 423 kts 251°
2026-05-05 13:43 40.95001 47.09913 35875 ft 423 kts 251°
2026-05-05 13:43 40.93616 47.02364 35864 ft 423 kts 251°
2026-05-05 13:44 40.92228 46.94836 35855 ft 422 kts 251°
2026-05-05 13:44 40.90835 46.87324 35849 ft 421 kts 251°
2026-05-05 13:45 40.89676 46.79718 35851 ft 425 kts 256°
2026-05-05 13:45 40.88909 46.71970 35850 ft 427 kts 257°
2026-05-05 13:46 40.88172 46.64223 35854 ft 427 kts 257°
2026-05-05 13:46 40.87432 46.56458 35858 ft 427 kts 257°
2026-05-05 13:47 40.86686 46.48680 35859 ft 428 kts 257°
2026-05-05 13:47 40.85936 46.40901 35864 ft 429 kts 257°
2026-05-05 13:48 40.85179 46.33089 35857 ft 429 kts 257°
2026-05-05 13:48 40.84418 46.25295 35862 ft 429 kts 257°
2026-05-05 13:49 40.83653 46.17507 35865 ft 429 kts 257°
2026-05-05 13:49 40.82883 46.09713 35873 ft 430 kts 257°
2026-05-05 13:50 40.82105 46.01908 35878 ft 431 kts 257°
2026-05-05 13:50 40.81320 45.94084 35890 ft 432 kts 257°
2026-05-05 13:51 40.80528 45.86257 35908 ft 431 kts 257°
2026-05-05 13:51 40.79734 45.78421 35928 ft 434 kts 257°
2026-05-05 13:52 40.78932 45.70556 35936 ft 434 kts 257°
2026-05-05 13:52 40.78125 45.62693 35934 ft 434 kts 257°
2026-05-05 13:53 40.77369 45.54813 35933 ft 436 kts 259°
2026-05-05 13:53 40.77086 45.46813 35948 ft 440 kts 265°
2026-05-05 13:54 40.77334 45.38736 35957 ft 443 kts 268°
2026-05-05 13:54 40.77701 45.30618 35968 ft 445 kts 267°
2026-05-05 13:55 40.78069 45.22516 35978 ft 445 kts 268°
2026-05-05 13:55 40.78420 45.14647 35976 ft 445 kts 268°
2026-05-05 13:56 40.78777 45.06519 35971 ft 446 kts 268°
2026-05-05 13:56 40.79129 44.98368 35960 ft 446 kts 267°
2026-05-05 13:57 40.79476 44.90200 35946 ft 447 kts 268°
2026-05-05 13:57 40.79816 44.82028 35949 ft 448 kts 268°
2026-05-05 13:58 40.80153 44.73834 35955 ft 448 kts 268°
2026-05-05 13:58 40.80482 44.65628 35952 ft 450 kts 268°
2026-05-05 13:59 40.80968 44.53292 35966 ft 451 kts 268°
2026-05-05 14:00 40.81441 44.40923 35963 ft 452 kts 269°
2026-05-05 14:00 40.81751 44.32646 35968 ft 453 kts 268°
2026-05-05 14:01 40.82055 44.24381 35969 ft 453 kts 268°
2026-05-05 14:01 40.82355 44.16101 35970 ft 454 kts 268°
2026-05-05 14:02 40.82651 44.07808 36176 ft 454 kts 268°
2026-05-05 14:02 40.82796 44.03664 35875 ft 454 kts 268°
2026-05-05 14:02 40.82941 43.99515 36063 ft 454 kts 269°
2026-05-05 14:03 40.83227 43.91238 36004 ft 453 kts 269°
2026-05-05 14:03 40.83502 43.82956 35982 ft 453 kts 269°
2026-05-05 14:04 40.83771 43.74684 35971 ft 453 kts 269°
2026-05-05 14:04 40.84054 43.66342 35979 ft 455 kts 270°
2026-05-05 14:05 40.84509 43.58009 36087 ft 459 kts 271°
2026-05-05 14:05 40.84752 43.53816 36322 ft 459 kts 271°
2026-05-05 14:05 40.84992 43.49633 36595 ft 458 kts 271°
2026-05-05 14:06 40.85227 43.45449 36813 ft 458 kts 271°
2026-05-05 14:06 40.85462 43.41245 37009 ft 459 kts 271°
2026-05-05 14:06 40.85693 43.37052 37194 ft 460 kts 271°
2026-05-05 14:06 40.85923 43.32813 37393 ft 460 kts 270°
2026-05-05 14:07 40.86149 43.28596 37583 ft 460 kts 270°
2026-05-05 14:07 40.86375 43.24388 37764 ft 461 kts 270°
2026-05-05 14:07 40.86598 43.20176 37925 ft 461 kts 270°
2026-05-05 14:07 40.86821 43.15929 38089 ft 462 kts 270°
2026-05-05 14:08 40.87042 43.11703 38239 ft 463 kts 270°
2026-05-05 14:08 40.87261 43.07474 38425 ft 463 kts 270°
2026-05-05 14:08 40.87479 43.03245 38622 ft 463 kts 270°
2026-05-05 14:08 40.87695 42.99016 38800 ft 463 kts 270°
2026-05-05 14:09 40.87908 42.94787 38971 ft 463 kts 270°
2026-05-05 14:09 40.88121 42.90556 39111 ft 464 kts 270°
2026-05-05 14:09 40.88332 42.86310 39235 ft 465 kts 270°
2026-05-05 14:09 40.88542 42.82065 39384 ft 465 kts 271°
2026-05-05 14:10 40.88751 42.77814 39528 ft 465 kts 271°
2026-05-05 14:10 40.88959 42.73568 39667 ft 465 kts 270°
2026-05-05 14:10 40.89165 42.69317 39795 ft 465 kts 271°
2026-05-05 14:10 40.89369 42.65066 39929 ft 465 kts 271°
2026-05-05 14:11 40.89776 42.56516 39967 ft 465 kts 270°
2026-05-05 14:11 40.90174 42.48000 39965 ft 465 kts 270°
2026-05-05 14:12 40.90568 42.39449 39964 ft 466 kts 270°
2026-05-05 14:12 40.90954 42.30911 39959 ft 466 kts 270°
2026-05-05 14:13 40.91333 42.22389 39956 ft 466 kts 270°
2026-05-05 14:13 40.91707 42.13861 39950 ft 466 kts 270°
2026-05-05 14:14 40.92075 42.05336 39951 ft 466 kts 270°
2026-05-05 14:14 40.92437 41.96799 39947 ft 467 kts 270°
2026-05-05 14:15 40.92793 41.88256 39960 ft 467 kts 270°
2026-05-05 14:15 40.93141 41.79720 39973 ft 467 kts 270°
2026-05-05 14:16 40.93483 41.71165 39972 ft 468 kts 270°
2026-05-05 14:16 40.93821 41.62602 39976 ft 468 kts 270°
2026-05-05 14:17 40.94153 41.54031 39972 ft 468 kts 270°
2026-05-05 14:17 40.94478 41.45451 39963 ft 469 kts 270°
2026-05-05 14:18 40.94797 41.36871 39953 ft 469 kts 270°
2026-05-05 14:18 40.95110 41.28285 39952 ft 469 kts 270°
2026-05-05 14:19 40.95418 41.19704 39957 ft 469 kts 270°
2026-05-05 14:19 40.95721 41.11116 39960 ft 469 kts 270°
2026-05-05 14:20 40.96019 41.02517 39964 ft 470 kts 270°
2026-05-05 14:20 40.96311 40.93904 39971 ft 470 kts 270°
2026-05-05 14:21 40.96589 40.85290 39969 ft 470 kts 270°
2026-05-05 14:21 40.96854 40.76681 39984 ft 470 kts 270°
2026-05-05 14:22 40.97119 40.68071 39984 ft 471 kts 270°
2026-05-05 14:22 40.97381 40.59445 39974 ft 471 kts 270°
2026-05-05 14:23 40.97638 40.50806 39974 ft 471 kts 270°
2026-05-05 14:23 40.97891 40.42167 39982 ft 471 kts 270°
2026-05-05 14:24 40.98139 40.33525 39983 ft 471 kts 270°
2026-05-05 14:24 40.98378 40.24894 39992 ft 471 kts 270°
2026-05-05 14:25 40.98606 40.16260 39998 ft 471 kts 269°
2026-05-05 14:25 40.98820 40.07619 40002 ft 472 kts 270°
2026-05-05 14:26 40.99034 39.98974 40004 ft 471 kts 270°
2026-05-05 14:26 40.99247 39.90330 40006 ft 471 kts 270°
2026-05-05 14:27 40.99468 39.81690 40009 ft 472 kts 271°
2026-05-05 14:27 41.00104 39.73062 40011 ft 474 kts 275°
2026-05-05 14:28 41.00932 39.64438 40005 ft 474 kts 275°
2026-05-05 14:28 41.01761 39.55810 40004 ft 474 kts 275°
2026-05-05 14:29 41.02582 39.47167 40000 ft 475 kts 275°
2026-05-05 14:29 41.03395 39.38521 39992 ft 475 kts 275°
2026-05-05 14:30 41.04203 39.29866 39993 ft 475 kts 275°
2026-05-05 14:30 41.05005 39.21224 39989 ft 474 kts 275°
2026-05-05 14:31 41.05798 39.12574 39993 ft 475 kts 275°
2026-05-05 14:31 41.06593 39.03922 39991 ft 475 kts 275°
2026-05-05 14:32 41.07389 38.95259 39999 ft 476 kts 275°
2026-05-05 14:32 41.08183 38.86584 39996 ft 476 kts 275°
2026-05-05 14:33 41.08973 38.77906 39997 ft 476 kts 275°
2026-05-05 14:33 41.09752 38.69222 40006 ft 476 kts 275°
2026-05-05 14:34 41.10505 38.60532 40003 ft 476 kts 275°
2026-05-05 14:34 41.11232 38.51851 40003 ft 476 kts 275°
2026-05-05 14:35 41.11955 38.43171 40008 ft 475 kts 275°
2026-05-05 14:35 41.12680 38.34473 40004 ft 476 kts 274°
2026-05-05 14:36 41.13395 38.25766 40002 ft 476 kts 275°
2026-05-05 14:36 41.14102 38.17068 40007 ft 476 kts 275°
2026-05-05 14:37 41.14811 38.08360 40004 ft 476 kts 275°
2026-05-05 14:37 41.15516 37.99644 40007 ft 477 kts 275°
2026-05-05 14:38 41.16213 37.90932 40011 ft 477 kts 275°
2026-05-05 14:38 41.16929 37.82213 40016 ft 477 kts 275°
2026-05-05 14:39 41.17678 37.73502 40017 ft 476 kts 275°
2026-05-05 14:39 41.18415 37.64795 40023 ft 476 kts 275°
2026-05-05 14:40 41.18948 37.56076 40023 ft 476 kts 274°
2026-05-05 14:40 41.19565 37.47364 40026 ft 476 kts 275°
2026-05-05 14:41 41.20219 37.38658 40025 ft 476 kts 275°
2026-05-05 14:41 41.20869 37.29939 40027 ft 476 kts 274°
2026-05-05 14:42 41.21506 37.21229 40027 ft 476 kts 274°
2026-05-05 14:42 41.22175 37.12513 40026 ft 476 kts 275°
2026-05-05 14:43 41.22852 37.03787 40028 ft 476 kts 275°
2026-05-05 14:43 41.23522 36.95066 40025 ft 476 kts 275°
2026-05-05 14:44 41.24184 36.86346 40030 ft 476 kts 275°
2026-05-05 14:44 41.24843 36.77629 40031 ft 476 kts 275°
2026-05-05 14:45 41.25494 36.68903 40026 ft 476 kts 275°
2026-05-05 14:45 41.26222 36.60190 40027 ft 477 kts 278°
2026-05-05 14:46 41.27523 36.51577 40026 ft 477 kts 284°
2026-05-05 14:46 41.29457 36.43171 40028 ft 477 kts 288°
2026-05-05 14:47 41.31587 36.34843 40025 ft 478 kts 288°
2026-05-05 14:47 41.33716 36.26498 40021 ft 478 kts 288°
2026-05-05 14:48 41.35830 36.18155 40019 ft 478 kts 288°
2026-05-05 14:48 41.37938 36.09795 40019 ft 478 kts 288°
2026-05-05 14:49 41.40037 36.01429 40017 ft 478 kts 288°
2026-05-05 14:49 41.42135 35.93047 40018 ft 479 kts 288°
2026-05-05 14:50 41.44226 35.84668 40019 ft 478 kts 288°
2026-05-05 14:50 41.46308 35.76287 40019 ft 478 kts 288°
2026-05-05 14:51 41.48385 35.67901 40013 ft 478 kts 288°
2026-05-05 14:51 41.50459 35.59495 40015 ft 479 kts 288°
2026-05-05 14:52 41.52526 35.51086 40002 ft 478 kts 289°
2026-05-05 14:52 41.54586 35.42681 39996 ft 478 kts 289°
2026-05-05 14:53 41.56640 35.34267 39995 ft 479 kts 288°
2026-05-05 14:53 41.58692 35.25830 39992 ft 479 kts 288°
2026-05-05 14:54 41.60735 35.17402 39995 ft 479 kts 288°
2026-05-05 14:54 41.62771 35.08974 39997 ft 478 kts 288°
2026-05-05 14:55 41.64800 35.00537 39994 ft 478 kts 288°
2026-05-05 14:55 41.66827 34.92087 40002 ft 479 kts 288°
2026-05-05 14:56 41.68846 34.83637 40002 ft 479 kts 288°
2026-05-05 14:56 41.70858 34.75192 39993 ft 479 kts 288°
2026-05-05 14:57 41.72869 34.66734 39996 ft 479 kts 288°
2026-05-05 14:57 41.74867 34.58266 39998 ft 479 kts 288°
2026-05-05 14:58 41.76853 34.49786 39990 ft 478 kts 288°
2026-05-05 14:58 41.78830 34.41329 39996 ft 477 kts 288°
2026-05-05 14:59 41.80802 34.32867 40004 ft 477 kts 288°
2026-05-05 14:59 41.82770 34.24398 39998 ft 477 kts 288°
2026-05-05 15:00 41.84407 34.17342 40003 ft 478 kts 288°
2026-05-05 15:00 41.86691 34.07457 40009 ft 477 kts 288°
2026-05-05 15:01 41.88642 33.98977 40006 ft 477 kts 288°
2026-05-05 15:01 41.90585 33.90505 40031 ft 476 kts 288°
2026-05-05 15:02 41.92520 33.82040 40025 ft 476 kts 288°
2026-05-05 15:02 41.94446 33.73568 40030 ft 476 kts 288°
2026-05-05 15:03 41.96202 33.65037 40032 ft 475 kts 286°
2026-05-05 15:03 41.97844 33.56477 40046 ft 475 kts 286°
2026-05-05 15:04 41.99480 33.47925 40052 ft 474 kts 286°
2026-05-05 15:04 42.01115 33.39379 40042 ft 473 kts 286°
2026-05-05 15:05 42.03556 33.26567 40052 ft 472 kts 286°
2026-05-05 15:06 42.05175 33.18039 40046 ft 472 kts 286°
2026-05-05 15:06 42.06784 33.09511 40050 ft 472 kts 286°
2026-05-05 15:07 42.08461 33.01019 40044 ft 470 kts 287°
2026-05-05 15:07 42.10207 32.92558 40043 ft 470 kts 288°
2026-05-05 15:08 42.11941 32.84100 40034 ft 470 kts 288°
2026-05-05 15:08 42.13668 32.75619 40030 ft 472 kts 288°
2026-05-05 15:09 42.15390 32.67118 40039 ft 472 kts 288°
2026-05-05 15:09 42.17102 32.58600 40035 ft 472 kts 288°
2026-05-05 15:10 42.18801 32.50075 40028 ft 472 kts 288°
2026-05-05 15:10 42.20493 32.41570 40026 ft 471 kts 288°
2026-05-05 15:11 42.22184 32.33062 40033 ft 471 kts 287°
2026-05-05 15:11 42.23870 32.24543 40034 ft 472 kts 287°
2026-05-05 15:12 42.25547 32.16002 40024 ft 473 kts 287°
2026-05-05 15:12 42.27211 32.07455 40027 ft 472 kts 287°
2026-05-05 15:13 42.28872 31.98910 40031 ft 472 kts 287°
2026-05-05 15:13 42.30531 31.90367 40024 ft 471 kts 287°
2026-05-05 15:14 42.32185 31.81834 40038 ft 471 kts 287°
2026-05-05 15:14 42.33835 31.73286 40040 ft 472 kts 287°
2026-05-05 15:15 42.35481 31.64719 40046 ft 472 kts 288°
2026-05-05 15:15 42.37117 31.56164 40037 ft 472 kts 288°
2026-05-05 15:16 42.38746 31.47614 40042 ft 471 kts 288°
2026-05-05 15:16 42.40365 31.39077 40040 ft 470 kts 288°
2026-05-05 15:17 42.41980 31.30533 40044 ft 470 kts 287°
2026-05-05 15:17 42.43591 31.21989 40040 ft 470 kts 287°
2026-05-05 15:18 42.45191 31.13442 40044 ft 470 kts 287°
2026-05-05 15:18 42.46777 31.04892 40034 ft 470 kts 287°
2026-05-05 15:19 42.48351 30.96345 40035 ft 469 kts 287°
2026-05-05 15:19 42.49923 30.87802 40041 ft 469 kts 287°
2026-05-05 15:20 42.51489 30.79260 40047 ft 469 kts 287°
2026-05-05 15:20 42.53049 30.70722 40044 ft 468 kts 287°
2026-05-05 15:21 42.54604 30.62180 40047 ft 468 kts 287°
2026-05-05 15:21 42.56151 30.53644 40040 ft 468 kts 287°
2026-05-05 15:22 42.57694 30.45095 40060 ft 468 kts 287°
2026-05-05 15:22 42.59320 30.36592 40056 ft 466 kts 291°
2026-05-05 15:23 42.61610 30.28353 40065 ft 463 kts 297°
2026-05-05 15:23 42.64606 30.20669 40068 ft 461 kts 304°
2026-05-05 15:24 42.68244 30.13572 40069 ft 459 kts 310°
2026-05-05 15:24 42.72124 30.06727 40064 ft 458 kts 310°
2026-05-05 15:25 42.76002 29.99890 40052 ft 458 kts 310°
2026-05-05 15:25 42.79870 29.93042 40063 ft 458 kts 310°
2026-05-05 15:26 42.83734 29.86178 40063 ft 458 kts 310°
2026-05-05 15:26 42.87591 29.79307 40066 ft 459 kts 310°
2026-05-05 15:27 42.91455 29.72400 40062 ft 459 kts 310°
2026-05-05 15:27 42.95306 29.65503 40059 ft 458 kts 310°
2026-05-05 15:28 42.99151 29.58605 40057 ft 458 kts 310°
2026-05-05 15:28 43.02996 29.51694 40039 ft 458 kts 310°
2026-05-05 15:29 43.06838 29.44764 40067 ft 458 kts 310°
2026-05-05 15:29 43.10684 29.37813 40072 ft 458 kts 309°
2026-05-05 15:30 43.14523 29.30853 40079 ft 458 kts 309°
2026-05-05 15:30 43.18344 29.23919 40078 ft 457 kts 309°
2026-05-05 15:31 43.22159 29.16971 40076 ft 457 kts 309°
2026-05-05 15:31 43.25969 29.10017 40083 ft 458 kts 309°
2026-05-05 15:32 43.29776 29.03055 40079 ft 457 kts 309°
2026-05-05 15:32 43.33580 28.96083 40078 ft 458 kts 309°
2026-05-05 15:33 43.37378 28.89103 40070 ft 457 kts 309°
2026-05-05 15:33 43.41170 28.82118 40070 ft 457 kts 309°
2026-05-05 15:34 43.44955 28.75132 40070 ft 457 kts 309°
2026-05-05 15:34 43.48738 28.68133 40067 ft 457 kts 309°
2026-05-05 15:35 43.52521 28.61118 40072 ft 457 kts 309°
2026-05-05 15:35 43.56299 28.54094 40069 ft 458 kts 309°
2026-05-05 15:36 43.60077 28.47053 40068 ft 458 kts 309°
2026-05-05 15:36 43.63853 28.39997 40070 ft 458 kts 309°
2026-05-05 15:37 43.67643 28.32897 40073 ft 459 kts 308°
2026-05-05 15:37 43.71414 28.25817 40070 ft 458 kts 308°
2026-05-05 15:38 43.75190 28.18713 40066 ft 459 kts 308°
2026-05-05 15:38 43.78957 28.11608 40066 ft 459 kts 308°
2026-05-05 15:39 43.82742 28.04451 40056 ft 459 kts 308°
2026-05-05 15:39 43.86516 27.97297 40057 ft 459 kts 308°
2026-05-05 15:40 43.90272 27.90161 40041 ft 459 kts 308°
2026-05-05 15:40 43.94021 27.83020 40064 ft 459 kts 308°
2026-05-05 15:41 43.97769 27.75863 40045 ft 459 kts 308°
2026-05-05 15:41 44.01520 27.68673 40037 ft 459 kts 307°
2026-05-05 15:42 44.04960 27.61145 40035 ft 461 kts 304°
2026-05-05 15:42 44.08311 27.53525 40028 ft 461 kts 304°
2026-05-05 15:43 44.11688 27.45914 40022 ft 461 kts 304°
2026-05-05 15:43 44.15080 27.38297 40022 ft 461 kts 304°
2026-05-05 15:44 44.18462 27.30701 40010 ft 461 kts 303°
2026-05-05 15:44 44.21843 27.23096 40014 ft 461 kts 303°
2026-05-05 15:45 44.25230 27.15455 40012 ft 461 kts 303°
2026-05-05 15:45 44.28591 27.07854 40007 ft 461 kts 303°
2026-05-05 15:46 44.31965 27.00204 40000 ft 461 kts 303°
2026-05-05 15:46 44.35329 26.92556 40011 ft 461 kts 303°
2026-05-05 15:47 44.38679 26.84925 40008 ft 461 kts 303°
2026-05-05 15:47 44.42042 26.77239 40005 ft 460 kts 303°
2026-05-05 15:48 44.45368 26.69617 40013 ft 459 kts 303°
2026-05-05 15:48 44.48691 26.61981 39996 ft 458 kts 303°
2026-05-05 15:49 44.52002 26.54358 40009 ft 458 kts 303°
2026-05-05 15:49 44.55305 26.46734 40016 ft 459 kts 303°
2026-05-05 15:50 44.58619 26.39059 40004 ft 458 kts 303°
2026-05-05 15:50 44.61936 26.31356 40014 ft 458 kts 303°
2026-05-05 15:51 44.65223 26.23701 40021 ft 457 kts 303°
2026-05-05 15:51 44.68506 26.16035 40004 ft 457 kts 303°
2026-05-05 15:52 44.71768 26.08403 40016 ft 456 kts 303°
2026-05-05 15:52 44.75019 26.00775 40005 ft 457 kts 302°
2026-05-05 15:53 44.78269 25.93127 40022 ft 456 kts 303°
2026-05-05 15:53 44.81509 25.85481 40023 ft 455 kts 303°
2026-05-05 15:54 44.84739 25.77842 40020 ft 455 kts 302°
2026-05-05 15:54 44.87973 25.70171 40034 ft 455 kts 302°
2026-05-05 15:55 44.91190 25.62511 40031 ft 454 kts 302°
2026-05-05 15:55 44.94396 25.54859 40042 ft 454 kts 302°
2026-05-05 15:56 44.97600 25.47199 40043 ft 455 kts 302°
2026-05-05 15:56 45.00799 25.39527 40050 ft 454 kts 302°
2026-05-05 15:57 45.03995 25.31839 40043 ft 454 kts 302°
2026-05-05 15:57 45.07169 25.24183 40049 ft 452 kts 301°
2026-05-05 15:58 45.10350 25.16490 40066 ft 451 kts 302°
2026-05-05 15:58 45.13517 25.08814 40048 ft 450 kts 301°
2026-05-05 15:59 45.16658 25.01178 40055 ft 450 kts 301°
2026-05-05 15:59 45.19795 24.93530 40042 ft 450 kts 301°
2026-05-05 16:00 45.22926 24.85871 40043 ft 450 kts 301°
2026-05-05 16:00 45.26051 24.78207 40042 ft 450 kts 302°
2026-05-05 16:01 45.29171 24.70543 40055 ft 449 kts 301°
2026-05-05 16:01 45.32279 24.62884 40056 ft 449 kts 301°
2026-05-05 16:02 45.35387 24.55200 40057 ft 449 kts 302°
2026-05-05 16:02 45.38491 24.47510 40053 ft 449 kts 302°
2026-05-05 16:03 45.41581 24.39831 40054 ft 449 kts 302°
2026-05-05 16:03 45.44675 24.32123 40054 ft 449 kts 301°
2026-05-05 16:04 45.47776 24.24375 40043 ft 449 kts 301°
2026-05-05 16:04 45.50856 24.16661 40038 ft 449 kts 301°
2026-05-05 16:05 45.53928 24.08940 40038 ft 449 kts 301°
2026-05-05 16:05 45.56990 24.01219 40048 ft 448 kts 301°
2026-05-05 16:06 45.60042 23.93504 40055 ft 448 kts 301°
2026-05-05 16:06 45.63093 23.85782 40050 ft 448 kts 301°
2026-05-05 16:07 45.66140 23.78039 40053 ft 448 kts 301°
2026-05-05 16:07 45.69180 23.70291 40047 ft 449 kts 301°
2026-05-05 16:08 45.72216 23.62529 40051 ft 448 kts 301°
2026-05-05 16:08 45.75246 23.54767 40049 ft 448 kts 301°
2026-05-05 16:09 45.78271 23.46996 40041 ft 448 kts 301°
2026-05-05 16:09 45.81289 23.39215 40023 ft 448 kts 301°
2026-05-05 16:10 45.84330 23.31357 40002 ft 448 kts 300°
2026-05-05 16:10 45.87342 23.23549 39994 ft 448 kts 300°
2026-05-05 16:11 45.90347 23.15742 39990 ft 448 kts 300°
2026-05-05 16:12 45.96363 23.00033 39977 ft 448 kts 300°
2026-05-05 16:13 46.03818 22.80446 39981 ft 447 kts 300°
2026-05-05 16:13 46.06785 22.72616 39978 ft 447 kts 300°
2026-05-05 16:14 46.12719 22.56867 39985 ft 447 kts 300°
2026-05-05 16:15 46.18613 22.41142 39989 ft 446 kts 300°
2026-05-05 16:16 46.24490 22.25375 39969 ft 447 kts 299°
2026-05-05 16:17 46.28904 22.13471 39969 ft 448 kts 299°
2026-05-05 16:18 46.33286 22.01605 39967 ft 447 kts 298°
2026-05-05 16:19 46.37644 21.89750 39953 ft 447 kts 298°
2026-05-05 16:19 46.42000 21.77845 39944 ft 448 kts 298°
2026-05-05 16:20 46.47803 21.61900 39933 ft 449 kts 298°
2026-05-05 16:22 46.55046 21.41866 39926 ft 449 kts 298°
2026-05-05 16:23 46.60845 21.25720 39926 ft 450 kts 298°
2026-05-05 16:23 46.65178 21.13590 39928 ft 451 kts 297°
2026-05-05 16:24 46.68052 21.05513 39931 ft 451 kts 298°
2026-05-05 16:25 46.72364 20.93354 39925 ft 452 kts 297°
2026-05-05 16:25 46.76662 20.81169 39922 ft 452 kts 297°
2026-05-05 16:26 46.82366 20.64916 39910 ft 452 kts 297°
2026-05-05 16:27 46.85211 20.56774 39907 ft 451 kts 297°
2026-05-05 16:27 46.88047 20.48631 39905 ft 452 kts 297°
2026-05-05 16:28 46.90882 20.40468 39907 ft 452 kts 297°
2026-05-05 16:28 46.93674 20.32401 39905 ft 452 kts 296°
2026-05-05 16:29 46.96496 20.24225 39905 ft 452 kts 296°
2026-05-05 16:29 46.99312 20.16041 39902 ft 452 kts 296°
2026-05-05 16:30 47.02125 20.07840 39904 ft 453 kts 296°
2026-05-05 16:30 47.04936 19.99619 39906 ft 453 kts 296°
2026-05-05 16:31 47.07741 19.91390 39907 ft 453 kts 296°
2026-05-05 16:31 47.10541 19.83146 39909 ft 453 kts 296°
2026-05-05 16:32 47.13332 19.74905 39909 ft 452 kts 296°
2026-05-05 16:32 47.16117 19.66659 39906 ft 452 kts 296°
2026-05-05 16:33 47.18893 19.58416 39897 ft 452 kts 296°
2026-05-05 16:33 47.21667 19.50154 39895 ft 452 kts 296°
2026-05-05 16:34 47.24436 19.41883 39896 ft 452 kts 296°
2026-05-05 16:34 47.27202 19.33598 39899 ft 452 kts 295°
2026-05-05 16:35 47.29963 19.25298 39894 ft 452 kts 295°
2026-05-05 16:35 47.32646 19.16905 39898 ft 451 kts 292°
2026-05-05 16:36 47.34799 19.08100 39899 ft 452 kts 286°
2026-05-05 16:36 47.36405 18.99148 39900 ft 452 kts 284°
2026-05-05 16:37 47.37930 18.90190 39890 ft 452 kts 284°
2026-05-05 16:37 47.39451 18.81222 39884 ft 452 kts 284°
2026-05-05 16:38 47.40974 18.72215 39889 ft 451 kts 284°
2026-05-05 16:38 47.42485 18.63241 39893 ft 451 kts 284°
2026-05-05 16:39 47.43992 18.54250 39884 ft 451 kts 284°
2026-05-05 16:39 47.45489 18.45275 39882 ft 451 kts 284°
2026-05-05 16:40 47.46979 18.36297 39889 ft 452 kts 284°
2026-05-05 16:40 47.48467 18.27282 39879 ft 451 kts 283°
2026-05-05 16:41 47.49943 18.18293 39882 ft 451 kts 283°
2026-05-05 16:41 47.51421 18.09248 39873 ft 450 kts 283°
2026-05-05 16:42 47.52882 18.00255 39869 ft 450 kts 283°
2026-05-05 16:42 47.54334 17.91269 39876 ft 451 kts 283°
2026-05-05 16:43 47.55780 17.82271 39879 ft 451 kts 283°
2026-05-05 16:43 47.57221 17.73266 39872 ft 451 kts 283°
2026-05-05 16:44 47.58655 17.64265 39877 ft 451 kts 283°
2026-05-05 16:44 47.60084 17.55254 39868 ft 451 kts 283°
2026-05-05 16:45 47.61535 17.46057 39845 ft 450 kts 283°
2026-05-05 16:45 47.62906 17.37028 39851 ft 450 kts 282°
2026-05-05 16:46 47.64138 17.27892 39839 ft 450 kts 281°
2026-05-05 16:46 47.65392 17.18613 39835 ft 450 kts 281°
2026-05-05 16:47 47.66655 17.09301 39832 ft 449 kts 281°
2026-05-05 16:47 47.68035 17.00284 39821 ft 449 kts 285°
2026-05-05 16:48 47.69906 16.91480 39807 ft 449 kts 288°
2026-05-05 16:48 47.71871 16.82703 39799 ft 450 kts 288°
2026-05-05 16:49 47.73834 16.73917 39801 ft 449 kts 288°
2026-05-05 16:49 47.75790 16.65112 39801 ft 449 kts 288°
2026-05-05 16:50 47.77752 16.56250 39775 ft 448 kts 288°
2026-05-05 16:50 47.79692 16.47445 39788 ft 448 kts 288°
2026-05-05 16:51 47.81591 16.38799 39767 ft 447 kts 287°
2026-05-05 16:51 47.83508 16.30023 39759 ft 448 kts 287°
2026-05-05 16:52 47.85420 16.21241 39767 ft 448 kts 287°
2026-05-05 16:52 47.87327 16.12434 39756 ft 449 kts 287°
2026-05-05 16:53 47.89228 16.03626 39751 ft 448 kts 287°
2026-05-05 16:53 47.91120 15.94817 39761 ft 448 kts 287°
2026-05-05 16:54 47.93001 15.86029 39756 ft 446 kts 287°
2026-05-05 16:54 47.94869 15.77251 39755 ft 446 kts 287°
2026-05-05 16:55 47.96732 15.68471 39744 ft 445 kts 287°
2026-05-05 16:55 47.98584 15.59695 39750 ft 445 kts 287°
2026-05-05 16:56 48.00432 15.50906 39759 ft 446 kts 286°
2026-05-05 16:56 48.02276 15.42099 39762 ft 446 kts 287°
2026-05-05 16:57 48.04116 15.33268 39770 ft 445 kts 286°
2026-05-05 16:57 48.05961 15.24373 39774 ft 445 kts 286°
2026-05-05 16:58 48.07783 15.15550 39753 ft 443 kts 286°
2026-05-05 16:58 48.09591 15.06766 39733 ft 443 kts 285°
2026-05-05 16:59 48.11394 14.97964 39728 ft 444 kts 285°
2026-05-05 16:59 48.13189 14.89154 39706 ft 444 kts 285°
2026-05-05 17:00 48.14993 14.80262 39700 ft 445 kts 285°
2026-05-05 17:00 48.16786 14.71389 39696 ft 444 kts 285°
2026-05-05 17:01 48.18559 14.62565 39699 ft 444 kts 285°
2026-05-05 17:01 48.20329 14.53735 39703 ft 444 kts 285°
2026-05-05 17:02 48.22096 14.44887 39701 ft 445 kts 286°
2026-05-05 17:02 48.23857 14.36026 39698 ft 445 kts 285°
2026-05-05 17:03 48.25625 14.27078 39705 ft 445 kts 284°
2026-05-05 17:03 48.27385 14.18123 39725 ft 445 kts 284°
2026-05-05 17:04 48.29127 14.09227 39728 ft 446 kts 284°
2026-05-05 17:04 48.30863 14.00317 39720 ft 446 kts 284°
2026-05-05 17:05 48.32594 13.91390 39731 ft 447 kts 284°
2026-05-05 17:05 48.34320 13.82455 39735 ft 446 kts 284°
2026-05-05 17:06 48.36052 13.73444 39740 ft 446 kts 284°
2026-05-05 17:06 48.37760 13.64523 39736 ft 446 kts 284°
2026-05-05 17:07 48.39464 13.55586 39733 ft 447 kts 284°
2026-05-05 17:07 48.41164 13.46632 39735 ft 447 kts 284°
2026-05-05 17:08 48.42855 13.37677 39731 ft 447 kts 285°
2026-05-05 17:08 48.44879 13.28779 39741 ft 449 kts 289°
2026-05-05 17:09 48.47173 13.20051 39740 ft 449 kts 289°
2026-05-05 17:09 48.49472 13.11338 39741 ft 448 kts 289°
2026-05-05 17:10 48.51760 13.02624 39737 ft 449 kts 289°
2026-05-05 17:10 48.54045 12.93880 39724 ft 449 kts 289°
2026-05-05 17:11 48.56321 12.85140 39729 ft 449 kts 289°
2026-05-05 17:11 48.58593 12.76387 39737 ft 449 kts 289°
2026-05-05 17:12 48.60859 12.67616 39743 ft 451 kts 289°
2026-05-05 17:12 48.63127 12.58813 39737 ft 452 kts 288°
2026-05-05 17:13 48.65391 12.49994 39730 ft 452 kts 288°
2026-05-05 17:13 48.67648 12.41171 39751 ft 451 kts 288°
2026-05-05 17:14 48.69899 12.32334 39731 ft 452 kts 288°
2026-05-05 17:14 48.72151 12.23467 39743 ft 452 kts 287°
2026-05-05 17:15 48.74213 12.14518 39745 ft 451 kts 283°
2026-05-05 17:15 48.75662 12.05340 39746 ft 449 kts 277°
2026-05-05 17:16 48.76689 11.96079 39752 ft 447 kts 276°
2026-05-05 17:16 48.77692 11.86770 39748 ft 448 kts 276°
2026-05-05 17:17 48.78688 11.77465 39771 ft 448 kts 276°
2026-05-05 17:17 48.79681 11.68126 39774 ft 448 kts 276°
2026-05-05 17:18 48.80658 11.58783 39785 ft 449 kts 276°
2026-05-05 17:18 48.81627 11.49431 39777 ft 450 kts 276°
2026-05-05 17:19 48.82589 11.40059 39782 ft 450 kts 276°
2026-05-05 17:19 48.83990 11.30766 39797 ft 455 kts 284°
2026-05-05 17:20 48.86567 11.21966 39805 ft 462 kts 295°
2026-05-05 17:20 48.90301 11.13965 39807 ft 469 kts 307°
2026-05-05 17:21 48.94991 11.07026 39807 ft 474 kts 314°
2026-05-05 17:22 49.02322 10.96955 39802 ft 474 kts 313°
2026-05-05 17:22 49.07159 10.90149 39797 ft 474 kts 313°
2026-05-05 17:23 49.11953 10.83379 39291 ft 468 kts 313°
2026-05-05 17:23 49.14332 10.80009 38633 ft 470 kts 313°
2026-05-05 17:23 49.16716 10.76626 38018 ft 470 kts 314°
2026-05-05 17:23 49.19101 10.73219 37350 ft 472 kts 313°
2026-05-05 17:24 49.21410 10.69698 36580 ft 473 kts 311°
2026-05-05 17:24 49.23706 10.66093 35927 ft 477 kts 312°
2026-05-05 17:24 49.26011 10.62449 35256 ft 481 kts 312°
2026-05-05 17:24 49.28341 10.58768 34517 ft 485 kts 313°
2026-05-05 17:25 49.30689 10.55059 33691 ft 489 kts 313°
2026-05-05 17:25 49.32260 10.52576 33184 ft 490 kts 313°
2026-05-05 17:25 49.35329 10.47471 32200 ft 492 kts 309°
2026-05-05 17:25 49.37467 10.43393 31469 ft 492 kts 305°
2026-05-05 17:26 49.39464 10.39156 30708 ft 493 kts 303°
2026-05-05 17:26 49.41424 10.34856 29767 ft 495 kts 302°
2026-05-05 17:26 49.43380 10.30545 28841 ft 495 kts 302°
2026-05-05 17:26 49.45336 10.26235 28125 ft 493 kts 302°
2026-05-05 17:27 49.47285 10.21948 27651 ft 490 kts 302°
2026-05-05 17:27 49.49224 10.17682 27184 ft 485 kts 301°
2026-05-05 17:27 49.51125 10.13491 26311 ft 475 kts 301°
2026-05-05 17:27 49.52985 10.09378 25409 ft 467 kts 301°
2026-05-05 17:28 49.54814 10.05324 24423 ft 461 kts 301°
2026-05-05 17:28 49.56623 10.01308 23455 ft 455 kts 301°
2026-05-05 17:28 49.58410 9.97336 22528 ft 450 kts 301°
2026-05-05 17:28 49.60173 9.93405 21623 ft 444 kts 301°
2026-05-05 17:29 49.61909 9.89527 20729 ft 439 kts 301°
2026-05-05 17:29 49.63625 9.85695 19851 ft 434 kts 301°
2026-05-05 17:29 49.65319 9.81908 19008 ft 428 kts 301°
2026-05-05 17:29 49.66992 9.78169 18187 ft 422 kts 301°
2026-05-05 17:30 49.68639 9.74483 17375 ft 417 kts 301°
2026-05-05 17:30 49.70266 9.70840 16567 ft 411 kts 301°
2026-05-05 17:30 49.71864 9.67250 15767 ft 406 kts 301°
2026-05-05 17:30 49.73444 9.63694 14970 ft 400 kts 302°
2026-05-05 17:31 49.74998 9.60190 14165 ft 394 kts 301°
2026-05-05 17:31 49.76525 9.56741 13309 ft 387 kts 301°
2026-05-05 17:31 49.78024 9.53343 12428 ft 383 kts 302°
2026-05-05 17:31 49.79524 9.49955 11593 ft 379 kts 302°
2026-05-05 17:32 49.81001 9.46621 11072 ft 376 kts 302°
2026-05-05 17:32 49.82478 9.43274 10859 ft 377 kts 302°
2026-05-05 17:32 49.83951 9.39926 10815 ft 377 kts 302°
2026-05-05 17:32 49.85351 9.36507 10811 ft 376 kts 297°
2026-05-05 17:33 49.86476 9.32870 10812 ft 374 kts 289°
2026-05-05 17:33 49.87318 9.29067 10818 ft 373 kts 284°
2026-05-05 17:33 49.88056 9.25226 10827 ft 374 kts 284°
2026-05-05 17:33 49.88780 9.21356 10829 ft 374 kts 284°
2026-05-05 17:34 49.89503 9.17515 10745 ft 365 kts 284°
2026-05-05 17:34 49.90204 9.13828 10349 ft 349 kts 284°
2026-05-05 17:34 49.90882 9.10309 10069 ft 333 kts 286°
2026-05-05 17:34 49.91903 9.07182 9786 ft 323 kts 307°
2026-05-05 17:35 49.93595 9.05004 9533 ft 313 kts 332°
2026-05-05 17:35 49.95651 9.04126 9290 ft 304 kts 357°
2026-05-05 17:35 49.97691 9.04638 8950 ft 298 kts 23°
2026-05-05 17:35 49.99376 9.06418 8478 ft 295 kts 49°
2026-05-05 17:36 50.00522 9.09022 8006 ft 291 kts 61°
2026-05-05 17:36 50.01476 9.11784 7534 ft 289 kts 63°
2026-05-05 17:36 50.02380 9.14561 7074 ft 287 kts 63°
2026-05-05 17:36 50.03258 9.17312 6838 ft 285 kts 63°
2026-05-05 17:37 50.04036 9.20137 6820 ft 286 kts 76°
2026-05-05 17:37 50.04389 9.23179 6831 ft 286 kts 82°
2026-05-05 17:37 50.04633 9.26228 6727 ft 281 kts 83°
2026-05-05 17:37 50.04847 9.29229 6229 ft 281 kts 83°
2026-05-05 17:38 50.05053 9.32239 5710 ft 281 kts 83°
2026-05-05 17:38 50.05470 9.35163 5224 ft 277 kts 62°
2026-05-05 17:38 50.06640 9.37403 4977 ft 262 kts 32°
2026-05-05 17:38 50.08259 9.38413 4764 ft 246 kts
2026-05-05 17:39 50.09892 9.38069 4556 ft 233 kts 339°
2026-05-05 17:39 50.11383 9.37163 4248 ft 229 kts 334°
2026-05-05 17:39 50.12827 9.36166 4013 ft 227 kts 334°
2026-05-05 17:39 50.14194 9.34955 4002 ft 227 kts 315°
2026-05-05 17:40 50.15213 9.33175 4030 ft 211 kts 308°
2026-05-05 17:40 50.16082 9.31395 4012 ft 205 kts 303°
2026-05-05 17:40 50.16723 9.29421 4021 ft 205 kts 293°
2026-05-05 17:40 50.17258 9.27356 4012 ft 205 kts 290°
2026-05-05 17:41 50.17708 9.25241 4007 ft 206 kts 288°
2026-05-05 17:41 50.18038 9.23072 3996 ft 207 kts 272°
2026-05-05 17:41 50.17846 9.20844 4008 ft 208 kts 259°
2026-05-05 17:41 50.17523 9.18644 4006 ft 208 kts 258°
2026-05-05 17:42 50.17216 9.16428 4006 ft 210 kts 260°
2026-05-05 17:42 50.16939 9.14198 4004 ft 210 kts 260°
2026-05-05 17:42 50.16571 9.11995 4002 ft 211 kts 254°
2026-05-05 17:42 50.16081 9.09840 4002 ft 211 kts 251°
2026-05-05 17:43 50.15624 9.07674 4002 ft 210 kts 253°
2026-05-05 17:43 50.15185 9.05501 4002 ft 210 kts 253°
2026-05-05 17:43 50.14726 9.03332 4001 ft 210 kts 252°
2026-05-05 17:43 50.14246 9.01179 4001 ft 210 kts 251°
2026-05-05 17:44 50.13751 8.99041 3999 ft 207 kts 251°
2026-05-05 17:44 50.13272 8.97014 3976 ft 191 kts 251°
2026-05-05 17:44 50.12830 8.95174 3961 ft 172 kts 251°
2026-05-05 17:44 50.12420 8.93479 3967 ft 165 kts 251°
2026-05-05 17:45 50.12017 8.91821 3987 ft 164 kts 250°
2026-05-05 17:45 50.11611 8.90160 3994 ft 164 kts 250°
2026-05-05 17:45 50.11204 8.88506 3999 ft 164 kts 250°
2026-05-05 17:45 50.10797 8.86850 3998 ft 164 kts 250°
2026-05-05 17:46 50.10392 8.85193 3870 ft 164 kts 250°
2026-05-05 17:46 50.09988 8.83540 3660 ft 163 kts 250°
2026-05-05 17:46 50.09589 8.81896 3455 ft 162 kts 251°
2026-05-05 17:46 50.09195 8.80259 3251 ft 161 kts 251°
2026-05-05 17:47 50.08802 8.78629 3047 ft 161 kts 251°
2026-05-05 17:47 50.08409 8.77004 2833 ft 160 kts 251°
2026-05-05 17:47 50.08018 8.75385 2617 ft 160 kts 251°
2026-05-05 17:47 50.07630 8.73774 2399 ft 159 kts 251°
2026-05-05 17:48 50.07246 8.72166 2186 ft 159 kts 251°
2026-05-05 17:48 50.06861 8.70560 1969 ft 158 kts 250°
2026-05-05 17:48 50.06472 8.68961 1757 ft 157 kts 251°
2026-05-05 17:48 50.06089 8.67373 1546 ft 157 kts 251°
2026-05-05 17:49 50.05712 8.65782 1339 ft 156 kts 251°
2026-05-05 17:49 50.05330 8.64195 1129 ft 156 kts 250°
2026-05-05 17:49 50.04950 8.62615 922 ft 155 kts 251°
2026-05-05 17:49 50.04578 8.61039 714 ft 155 kts 250°
2026-05-05 17:50 50.04197 8.59479 505 ft 154 kts 250°
2026-05-05 17:50 50.03834 8.57917 365 ft 147 kts 248°
2026-05-05 17:50 50.03534 8.56677 361 ft 91 kts 250°
2026-05-05 17:50 50.03390 8.56072 360 ft 29 kts 250°
2026-05-05 17:51 50.03323 8.55788 360 ft 22 kts 255°
2026-05-05 17:51 50.03312 8.55578 360 ft 17 kts 273°
2026-05-05 17:51 50.03324 8.55432 361 ft 11 kts 279°
2026-05-05 17:51 50.03333 8.55345 360 ft 2 kts 279°
2026-05-05 17:52 50.03339 8.55293 360 ft 7 kts 279°
2026-05-05 17:52 50.03359 8.55206 360 ft 9 kts 315°
2026-05-05 17:52 50.03426 8.55220 360 ft 12 kts 47°
2026-05-05 17:52 50.03465 8.55350 360 ft 13 kts 70°
2026-05-05 17:53 50.03502 8.55501 360 ft 16 kts 70°
2026-05-05 17:53 50.03544 8.55679 361 ft 18 kts 70°
2026-05-05 17:53 50.03590 8.55873 360 ft 20 kts 70°
2026-05-05 17:53 50.03641 8.56085 360 ft 21 kts 70°
2026-05-05 17:54 50.03696 8.56317 361 ft 23 kts 70°
2026-05-05 17:54 50.03743 8.56515 361 ft 18 kts 70°
2026-05-05 17:54 50.03792 8.56716 360 ft 20 kts 69°
2026-05-05 17:54 50.03845 8.56935 360 ft 22 kts 70°
2026-05-05 17:55 50.03900 8.57167 360 ft 20 kts 70°
2026-05-05 17:55 50.03952 8.57385 360 ft 22 kts 70°
2026-05-05 17:55 50.04009 8.57619 360 ft 24 kts 70°
2026-05-05 17:55 50.04062 8.57840 360 ft 22 kts 70°
2026-05-05 17:56 50.04110 8.58043 360 ft 14 kts 70°
2026-05-05 17:56 50.04169 8.58152 360 ft 14 kts 28°
2026-05-05 17:56 50.04225 8.58202 360 ft 5 kts 38°
2026-05-05 17:56 50.04262 8.58212 360 ft 2 kts 349°
2026-05-05 17:57 50.04265 8.58211 360 ft 0 kts 347°
2026-05-05 17:57 50.04267 8.58210 360 ft 2 kts 347°
2026-05-05 17:57 50.04324 8.58183 361 ft 13 kts 341°
2026-05-05 17:57 50.04424 8.58128 360 ft 14 kts 339°
2026-05-05 17:58 50.04450 8.58112 360 ft 0 kts 340°
2026-05-05 17:58 50.04462 8.58105 360 ft 8 kts 340°
2026-05-05 17:58 50.04535 8.58062 361 ft 13 kts 340°
2026-05-05 17:59 50.04596 8.58026 360 ft 4 kts 339°
2026-05-05 17:59 50.04610 8.58018 360 ft 3 kts 339°
2026-05-05 17:59 50.04647 8.57996 360 ft 8 kts 340°
2026-05-05 17:59 50.04713 8.57958 360 ft 10 kts 339°
2026-05-05 18:00 50.04753 8.57934 360 ft 7 kts 339°
2026-05-05 18:00 50.04770 8.57924 360 ft 3 kts 339°
2026-05-05 18:00 50.04781 8.57904 360 ft 3 kts 275°
2026-05-05 18:00 50.04770 8.57852 360 ft 5 kts 248°
2026-05-05 18:01 50.04763 8.57804 360 ft 2 kts 271°
2026-05-05 18:01 50.04765 8.57777 360 ft 0 kts 276°
2026-05-05 18:01 50.04766 8.57766 361 ft 0 kts 285°
2026-05-05 18:01 50.04766 8.57761 361 ft 0 kts 272°
2026-05-05 18:02 50.04766 8.57760 361 ft 0 kts 272°